GFSGL_sfc_wetblb_099.txt.gz
Wetbulb
56.12 56.01 57.49 57.15 56.83 56.74 56.81 57.11 57.31 56.43 56.20 55.79 55.85 56.41 55.27 55.29 56.17 55.40 54.67 55.12 54.39 54.15 55.81 56.76 55.81 55.31 54.87 56.80 57.81 57.37 56.13 56.80 53.99 56.00 57.32 58.80 56.27 55.43 55.26 56.72 54.87 54.52 54.56
56.68 56.81 57.26 57.24 56.68 55.84 56.03 56.17 57.18 56.74 55.46 56.74 55.97 55.28 55.49 55.23 56.28 56.19 54.99 54.88 54.64 54.03 54.12 54.00 53.42 53.58 53.83 55.00 55.65 55.02 55.99 56.19 54.58 54.69 57.35 57.83 57.24 57.40 58.75 56.14 55.64 55.85 56.13
56.95 56.44 56.33 56.44 55.74 55.75 55.43 55.47 55.94 56.65 56.87 56.64 56.64 54.55 54.06 54.89 55.43 55.75 55.53 55.59 54.63 54.20 54.02 53.59 53.63 54.02 53.14 53.63 53.84 53.75 54.86 55.08 55.79 55.93 55.96 57.58 57.52 56.92 56.22 55.12 55.57 55.18 55.23
56.50 56.05 55.73 56.32 56.09 55.91 55.97 55.34 54.85 55.55 55.91 56.07 56.45 56.73 56.85 55.69 54.42 54.51 54.93 54.92 55.45 56.12 57.12 56.74 54.77 53.54 53.34 53.36 54.28 53.59 53.48 53.73 54.92 56.08 55.97 56.09 57.39 58.92 58.03 56.55 56.82 57.68 56.79
56.27 56.16 55.63 56.46 56.24 55.61 55.93 55.79 55.32 54.67 55.11 55.83 55.67 55.80 56.33 56.38 56.24 56.01 54.53 53.79 53.87 54.66 56.90 57.03 57.82 56.20 50.22 52.30 53.72 53.26 53.28 53.21 54.39 54.68 54.79 55.69 56.00 56.71 56.02 56.93 56.06 57.39 58.05
56.63 56.06 56.33 55.80 55.79 55.32 55.51 56.44 55.33 54.89 55.01 54.74 54.39 54.85 55.05 54.58 46.61 45.11 51.93 55.76 54.99 55.34 55.43 56.13 56.45 50.11 50.06 44.82 44.78 45.62 51.73 54.37 54.82 53.61 53.17 52.41 53.39 54.78 55.88 54.65 54.42 53.11 51.39
45.17 45.76 47.26 49.60 50.73 52.34 55.62 55.24 54.79 55.52 55.43 54.72 54.49 54.57 54.69 55.23 43.54 43.80 43.31 55.54 55.75 55.93 55.84 55.67 55.60 55.46 50.62 55.67 46.54 42.55 42.91 42.69 43.91 54.32 53.04 52.92 52.77 54.14 55.90 53.87 53.81 53.59 53.26
39.91 40.31 41.91 43.70 43.99 44.97 46.26 46.61 47.25 50.39 54.51 54.33 54.14 53.93 54.02 45.85 37.36 40.41 41.14 50.25 52.32 53.05 53.47 54.04 54.55 55.42 55.54 54.20 54.06 54.07 52.91 51.08 48.25 47.28 49.81 52.18 50.95 41.09 42.78 47.62 49.26 51.23 46.56
36.23 36.71 37.58 38.99 39.44 40.45 40.71 41.34 42.77 45.81 44.81 40.25 39.64 41.57 43.91 36.80 35.62 35.86 39.20 47.13 49.12 50.46 51.57 51.05 44.33 46.64 42.17 39.51 47.36 48.48 48.23 47.40 35.42 36.53 33.80 32.70 32.67 32.47 33.27 38.44 41.37 42.64 41.64
34.92 35.11 35.76 37.08 36.66 37.40 38.24 38.87 40.61 40.85 38.37 37.06 34.72 34.12 33.48 34.22 34.62 35.95 37.21 43.75 46.37 45.34 35.40 34.24 33.46 34.70 35.01 36.01 41.04 42.24 43.67 42.70 32.49 31.50 29.97 29.23 29.31 28.88 28.49 29.26 30.94 34.06 35.48
34.65 34.32 34.40 34.81 34.88 35.33 36.17 36.89 37.90 36.82 35.19 33.47 31.61 31.11 30.93 31.87 32.51 33.70 35.65 39.20 37.82 33.28 31.19 29.70 30.64 32.11 32.63 33.48 33.28 35.41 35.85 32.58 30.85 28.60 26.90 26.35 25.58 25.25 24.79 24.49 24.10 24.13 24.50
33.55 32.88 32.30 32.67 32.97 33.24 33.88 34.41 34.89 34.98 33.15 31.62 30.54 29.87 30.64 31.02 31.62 31.62 31.49 31.26 31.30 29.12 27.61 28.26 28.72 29.51 29.25 29.50 28.82 28.84 28.64 27.31 26.04 23.85 22.67 21.96 23.21 23.64 23.22 22.87 22.58 22.89 23.45
32.03 30.80 30.43 30.44 31.16 31.38 30.96 31.13 31.27 31.85 31.32 30.57 29.97 29.70 29.76 30.97 30.76 30.10 29.85 29.08 29.17 28.58 27.98 27.08 27.06 26.93 26.93 26.53 26.28 26.13 25.53 24.22 22.89 21.43 21.51 20.79 22.46 24.24 25.36 25.12 25.16 23.75 22.49
30.42 29.73 29.53 28.63 28.71 29.85 30.11 29.91 29.89 29.74 29.57 29.69 29.31 28.75 29.08 30.00 30.14 30.10 29.80 29.77 28.41 27.98 26.68 26.58 26.19 25.53 25.01 25.74 26.67 26.57 26.05 25.45 24.41 23.28 22.54 23.18 24.39 24.42 23.67 24.75 23.93 23.53 20.71
29.99 29.65 29.01 28.18 27.16 26.67 27.12 28.39 28.77 29.05 29.74 28.56 28.38 28.42 27.71 27.13 27.77 28.49 28.57 28.48 27.72 26.02 26.41 26.69 25.64 25.31 24.38 24.62 23.85 23.90 25.10 25.30 24.18 24.27 23.50 22.80 22.14 21.88 20.97 22.55 21.68 20.94 19.24
29.27 28.88 28.89 28.14 27.35 26.51 25.71 24.59 26.84 27.77 28.12 28.35 28.15 28.25 28.42 28.09 27.69 27.08 26.23 25.49 24.86 24.74 25.01 23.50 22.54 22.25 21.47 21.38 21.48 21.22 21.49 20.96 21.94 22.02 21.50 20.66 19.46 19.35 19.25 19.71 20.04 19.13 17.58
26.73 27.58 27.52 26.75 25.87 24.77 24.40 23.57 21.32 21.92 24.17 25.61 26.28 26.67 26.80 26.03 25.84 25.43 24.61 23.79 23.49 23.85 22.22 21.34 20.66 20.88 20.65 20.15 19.58 18.97 17.11 17.73 18.81 18.89 18.78 18.48 18.44 17.71 18.08 17.33 17.38 17.56 15.81
23.74 22.69 24.07 23.66 23.38 22.52 22.35 21.52 21.77 20.96 19.54 19.50 20.67 23.71 24.21 24.04 23.63 22.98 22.73 23.51 22.21 21.48 21.33 20.19 19.50 19.55 18.89 17.55 16.87 16.23 15.91 16.18 15.98 16.05 15.57 15.80 16.15 16.47 15.71 14.65 14.85 14.82 14.92
24.33 23.26 23.30 22.85 22.25 21.56 21.58 20.73 20.28 19.43 18.34 17.99 19.33 18.67 18.11 19.92 19.47 19.39 19.91 19.94 18.88 17.95 17.95 17.49 17.81 17.16 16.50 15.95 15.06 14.53 13.17 12.01 13.02 13.30 13.31 13.15 13.73 14.28 13.00 13.42 12.66 10.48 12.73
21.70 20.07 21.01 21.86 21.27 20.51 19.94 18.68 17.40 16.25 15.44 15.01 14.61 14.54 17.10 17.75 16.11 14.68 15.38 16.09 15.83 15.61 15.75 15.14 14.88 14.85 14.67 14.28 13.95 13.22 12.28 12.30 12.47 11.79 11.21 11.70 12.79 12.73 11.36 11.35 11.77 12.31 11.51
21.22 20.36 18.82 20.38 19.49 18.80 18.11 16.91 16.15 14.79 13.63 12.77 11.64 11.67 11.10 13.40 12.48 12.28 12.10 12.15 12.76 12.59 12.84 12.83 12.30 12.20 12.43 11.62 11.18 10.05 9.14 9.12 9.67 9.86 10.36 9.98 10.10 10.27 11.30 11.20 10.87 11.01 10.35
19.97 19.65 18.93 18.07 18.15 17.28 16.32 15.77 14.74 13.69 12.75 11.91 11.55 9.60 9.51 11.63 10.78 10.16 9.71 9.51 10.52 10.93 11.49 11.22 10.39 9.76 9.28 9.32 9.30 8.96 7.01 6.58 7.12 7.27 8.00 7.72 9.16 9.24 9.96 9.63 9.63 9.51 9.66
18.27 17.66 16.84 16.27 15.81 14.46 14.70 13.75 12.54 11.74 10.45 10.12 9.97 9.26 9.17 8.81 8.56 8.12 7.69 8.14 8.62 8.79 9.69 9.46 8.49 7.23 7.24 6.93 7.63 7.45 5.81 4.59 4.62 4.88 6.48 8.13 8.84 9.63 9.87 9.15 7.83 8.32 7.87
15.40 15.47 14.42 13.70 13.41 12.56 12.35 11.08 9.94 8.20 8.76 8.59 8.59 8.04 7.11 6.85 6.64 5.91 6.25 7.03 7.16 7.13 7.10 6.28 6.10 5.42 5.39 5.62 6.66 6.63 5.17 4.30 4.87 4.08 2.68 5.68 7.63 7.20 8.69 8.30 8.33 5.60 7.32
13.25 12.64 11.80 11.17 10.96 10.46 10.07 9.47 8.91 8.33 7.78 7.47 6.87 6.82 6.23 6.05 4.94 5.18 5.36 5.42 4.66 5.20 4.40 4.54 5.15 4.34 2.83 1.66 1.93 2.14 0.29 -0.69 0.87 -2.32 4.46 3.39 2.77 2.02 4.55 7.07 5.50 7.47 4.96
11.00 10.29 10.04 10.06 9.69 9.38 8.89 8.05 7.36 6.89 5.86 5.17 5.12 4.75 4.78 4.20 3.84 4.29 3.87 3.33 3.16 3.12 2.82 3.60 3.21 1.71 0.24 2.77 1.51 0.24 -1.18 -1.20 0.09 -4.35 2.48 5.84 5.16 5.80 6.12 4.62 -0.22 6.74 5.46

GFSGL_sfc_wetblb_102.txt.gz
Wetbulb
58.07 59.03 61.39 62.33 62.26 61.71 61.09 60.89 60.08 60.32 59.10 58.90 58.61 59.39 57.16 56.31 56.22 55.82 55.34 55.10 54.51 54.79 54.45 53.86 53.81 54.45 54.61 55.87 55.82 56.07 54.53 54.57 51.38 54.25 56.53 58.42 60.28 60.66 59.31 60.35 59.50 58.71 59.55
57.75 58.52 60.61 61.76 61.51 60.88 60.76 60.77 60.18 58.91 59.28 58.41 58.23 58.99 57.46 57.81 57.76 57.13 55.91 55.65 54.55 54.00 54.63 54.35 54.14 56.06 55.83 57.33 56.34 55.22 55.21 57.85 55.95 54.05 54.32 56.40 59.75 60.52 60.89 60.72 59.28 57.97 57.57
57.08 57.88 59.01 59.43 60.44 60.04 60.32 60.55 59.95 59.02 58.56 58.38 58.66 58.13 56.89 57.61 57.98 57.56 57.00 57.03 56.41 55.81 55.70 55.42 56.27 56.72 55.24 55.42 54.77 54.50 55.17 56.80 57.04 54.05 55.21 58.73 58.79 59.19 59.54 60.45 60.30 60.72 57.86
57.45 58.19 57.80 58.12 59.54 59.71 59.73 59.51 59.41 59.14 58.00 58.06 58.05 58.72 58.44 58.37 57.91 57.91 57.74 56.70 57.77 57.70 57.61 57.07 55.53 54.77 54.76 54.36 54.84 55.11 53.47 53.48 54.00 54.26 53.74 54.87 55.94 58.56 59.61 58.44 57.90 60.57 59.00
57.09 57.22 57.26 57.78 58.00 57.78 57.60 58.05 58.77 58.68 58.28 58.51 58.28 58.76 58.62 58.35 57.96 57.90 57.24 56.89 56.91 56.70 57.22 56.99 57.27 55.47 50.33 53.16 56.67 56.52 54.16 53.23 53.48 54.29 53.18 52.39 52.73 54.11 56.20 58.58 58.12 59.27 60.28
49.52 50.96 56.35 57.22 56.64 56.52 57.69 57.05 56.97 57.50 58.03 57.96 57.52 57.97 58.08 57.75 48.38 46.21 53.14 57.93 57.33 57.08 57.65 57.52 57.43 51.61 51.92 45.07 45.66 46.43 53.86 56.11 55.03 54.04 52.14 52.14 54.33 56.49 58.69 58.19 58.06 57.19 55.27
43.33 44.20 45.39 47.89 49.66 50.89 55.04 55.77 56.77 57.37 57.78 56.89 57.32 57.59 57.01 53.74 37.62 41.20 43.47 57.98 58.10 57.90 57.88 57.84 57.18 57.67 53.23 58.29 47.51 42.51 43.40 42.87 44.03 56.66 56.66 56.66 56.17 56.43 54.57 56.36 56.61 55.99 55.03
38.48 39.83 40.46 42.32 42.93 44.30 45.37 46.04 47.68 49.47 47.81 50.36 48.44 53.92 44.11 37.98 36.18 36.53 37.81 47.92 52.03 54.39 56.20 52.85 51.64 53.49 49.25 47.81 54.38 54.68 53.38 52.45 49.27 49.73 50.33 48.92 40.32 36.54 38.36 42.42 43.17 43.69 44.81
36.26 37.09 38.13 39.16 39.75 40.29 40.47 41.82 43.33 42.51 39.70 37.93 37.84 38.88 37.81 36.05 35.10 35.79 38.48 47.19 48.76 50.18 39.07 35.54 37.54 39.85 35.98 36.91 44.38 47.48 46.64 36.73 35.22 34.63 33.76 32.33 31.20 30.56 31.32 37.97 40.03 39.54 40.85
35.39 35.42 36.96 37.75 38.38 38.38 39.44 39.64 39.14 37.88 35.85 35.00 32.93 33.52 33.26 33.04 33.77 35.22 39.93 44.62 44.55 35.50 32.62 32.21 32.52 33.57 33.41 33.83 39.72 40.80 40.31 35.76 31.60 30.23 28.47 27.56 27.13 27.18 27.04 27.88 29.11 33.61 34.72
35.66 35.65 35.80 37.39 36.80 37.60 38.41 38.63 37.34 35.62 33.95 32.65 31.40 31.73 31.70 31.98 31.85 33.04 34.48 36.71 33.01 30.28 29.13 28.73 30.28 31.34 31.51 31.37 31.59 31.91 33.38 31.26 28.67 28.02 26.56 26.75 25.36 24.86 25.83 26.21 25.82 27.00 25.91
34.96 34.04 34.56 35.02 35.73 36.38 36.82 36.57 37.07 35.60 33.56 32.39 31.75 31.11 31.84 31.85 31.26 31.52 31.40 31.27 30.92 28.69 27.52 28.25 29.02 29.24 29.12 28.92 28.47 28.23 28.08 27.72 26.53 24.88 24.30 23.89 24.02 23.70 24.67 24.90 25.70 26.02 26.72
32.90 33.22 33.10 33.48 34.01 33.99 34.70 35.22 34.94 36.03 35.40 33.98 33.36 32.98 32.49 33.13 32.46 30.18 29.25 29.27 29.61 29.91 29.88 28.83 28.91 29.18 29.13 28.54 28.35 28.10 28.27 27.83 26.45 24.55 23.82 23.98 25.70 27.54 28.31 28.03 28.55 27.88 25.94
32.35 31.38 30.27 29.46 31.02 32.69 32.39 32.02 32.05 32.93 32.50 31.93 31.69 31.16 31.44 31.72 32.32 32.69 32.53 32.00 30.08 30.37 29.81 30.24 28.78 28.30 28.05 29.39 30.42 30.15 30.81 30.93 29.92 28.16 27.59 28.03 28.88 28.44 27.44 28.21 27.48 27.83 26.77
31.98 31.42 30.96 29.81 29.18 27.70 27.22 28.74 28.87 29.67 30.50 30.29 29.98 30.47 30.03 28.57 28.19 28.89 30.36 30.11 30.08 29.92 31.58 31.74 30.75 29.99 28.88 28.37 27.84 27.51 28.21 28.30 27.45 27.77 27.59 27.30 27.18 26.83 25.86 27.06 26.51 26.17 23.86
30.46 30.33 30.41 30.54 30.72 30.55 28.13 25.28 26.50 27.27 27.83 28.26 28.57 28.92 28.63 27.82 27.17 26.88 26.83 27.23 28.11 29.45 31.22 28.67 27.70 27.58 27.35 27.04 26.64 26.03 26.31 25.88 26.53 26.74 26.16 25.56 24.40 24.27 24.34 24.84 25.05 23.98 22.18
28.73 29.23 29.75 29.25 29.21 28.57 28.41 27.19 24.16 24.29 24.45 25.79 26.47 26.85 26.53 25.98 26.07 26.08 26.25 26.81 28.04 29.15 28.05 26.92 26.00 25.90 26.03 25.43 24.99 24.19 22.81 23.02 23.44 23.93 23.91 23.58 23.31 22.59 23.01 22.45 22.76 22.46 20.82
27.62 26.68 27.90 27.87 27.78 27.41 26.98 26.65 26.85 25.55 23.93 22.90 22.32 23.38 23.49 23.81 24.26 25.16 26.66 28.26 26.99 25.99 25.08 24.05 23.32 23.54 23.16 22.44 22.29 21.99 21.78 22.05 21.50 21.58 21.79 21.52 21.81 21.63 20.65 19.98 20.35 19.79 20.08
27.19 26.89 26.94 26.49 26.50 26.35 26.47 25.87 25.66 24.91 24.01 23.81 24.37 23.16 23.05 22.30 22.68 23.24 24.17 24.42 23.01 22.44 22.38 21.87 22.52 22.01 21.75 21.28 20.89 20.25 19.44 18.48 19.35 20.16 19.59 19.07 19.85 19.97 18.41 18.67 17.90 14.95 17.65
25.51 24.12 25.28 25.92 25.73 25.62 25.34 24.84 23.93 23.45 22.49 21.30 19.90 20.37 23.52 24.02 22.50 21.58 21.75 21.99 21.31 20.93 20.97 20.00 19.82 19.83 19.79 19.59 19.50 19.46 19.39 18.80 18.31 18.38 18.04 18.44 18.88 19.03 17.99 17.27 17.57 18.08 17.02
25.52 25.12 24.01 25.06 24.48 24.32 24.03 23.18 22.68 22.27 21.15 19.37 17.07 16.71 16.61 21.09 19.74 18.88 18.56 18.84 18.94 19.16 19.02 18.81 18.43 18.23 18.39 17.98 17.83 17.54 16.28 16.99 16.06 16.34 17.24 16.94 16.31 17.30 17.45 17.52 17.24 16.96 15.62
24.71 24.32 24.19 23.39 23.39 22.91 22.48 21.90 21.35 20.57 20.04 19.21 18.04 15.69 15.40 18.44 17.57 16.83 16.48 16.27 16.87 17.37 17.69 17.37 16.45 15.65 15.10 15.36 15.42 15.89 13.99 13.34 13.91 14.76 14.85 14.30 15.99 16.41 16.61 15.94 16.04 16.21 15.63
23.25 22.86 22.25 21.71 21.30 20.32 20.50 19.92 19.48 19.20 17.93 17.35 16.90 16.07 16.17 15.83 15.22 15.06 14.41 14.61 14.96 14.51 15.02 15.21 13.98 12.98 13.67 13.29 13.84 13.32 12.23 11.32 11.46 10.80 12.73 13.92 15.05 15.88 15.78 15.56 14.33 14.35 13.17
21.33 21.10 20.29 19.80 20.03 19.51 19.08 17.30 15.57 14.00 15.84 16.14 15.91 15.13 14.32 13.92 13.65 12.49 12.59 13.05 13.13 13.15 12.75 11.27 10.13 8.62 10.21 11.74 13.20 12.66 10.62 8.92 10.42 11.14 8.73 10.92 13.19 13.15 14.23 13.49 13.82 11.22 12.55
19.80 19.27 18.80 18.42 18.06 17.66 17.40 16.59 16.15 15.65 15.27 15.18 14.56 14.14 13.48 12.88 12.19 12.41 11.75 10.79 9.97 10.79 9.70 10.04 9.33 9.13 7.72 5.79 6.05 6.14 3.73 3.14 4.64 2.82 10.23 9.74 8.97 8.16 9.50 11.82 10.28 12.57 10.94
16.93 16.59 16.90 17.30 16.63 16.52 16.23 15.60 14.76 14.32 13.34 13.02 12.67 12.49 12.15 10.97 11.02 11.11 9.98 8.84 8.52 8.61 7.47 9.16 8.07 5.95 6.15 6.57 6.11 4.29 2.52 2.27 3.57 1.72 5.23 10.41 9.83 10.90 11.04 10.34 8.23 10.76 11.39

GFSGL_sfc_wetblb_105.txt.gz
Wetbulb
59.74 60.17 62.44 63.31 64.76 64.35 63.02 62.67 61.54 60.64 60.55 60.22 60.72 59.57 58.28 57.88 58.32 58.84 58.74 57.98 56.78 56.19 56.13 56.05 55.93 56.19 55.55 55.67 55.99 55.36 54.56 54.11 51.42 53.28 55.09 55.90 58.01 58.96 59.67 61.79 61.23 61.82 61.19
58.92 59.20 61.74 63.11 63.43 62.92 62.20 62.05 61.47 59.48 60.08 60.01 60.55 58.79 59.14 58.32 57.79 57.04 55.53 55.55 55.13 54.49 55.00 54.98 54.80 54.93 54.83 55.17 54.95 54.42 54.21 53.93 52.34 50.80 53.64 54.13 55.65 59.65 57.97 58.41 60.05 60.16 61.52
58.26 59.22 61.03 61.68 61.80 62.03 61.77 61.00 59.69 59.45 59.23 59.81 60.09 59.09 58.48 58.67 58.05 57.28 56.61 56.11 56.07 56.21 56.23 55.08 54.63 53.88 53.68 55.05 55.88 56.03 55.93 55.17 56.36 53.63 53.74 56.76 57.58 59.15 58.04 58.39 59.05 58.36 59.73
57.95 58.75 58.77 59.60 60.60 61.54 61.57 60.02 59.05 59.25 58.67 58.51 58.87 59.09 58.00 57.80 58.16 58.13 57.99 57.73 57.48 57.80 57.93 57.30 56.48 56.18 55.77 56.78 57.31 57.27 56.93 56.45 54.33 53.37 53.72 55.86 57.03 58.87 57.79 56.51 57.41 59.86 59.51
57.33 57.77 57.52 59.23 60.19 60.99 60.32 58.89 58.87 58.73 58.31 58.31 58.35 58.67 58.65 57.96 57.86 58.39 58.07 57.21 57.40 57.46 57.44 57.34 57.56 55.84 50.38 53.48 57.52 57.44 57.39 56.33 54.44 54.63 53.76 52.63 52.81 54.06 55.86 56.85 54.06 56.55 58.75
47.34 47.67 55.24 57.91 58.05 58.00 57.80 57.78 58.03 57.95 58.19 57.99 57.93 58.35 58.97 58.28 38.79 44.02 52.12 58.18 57.80 57.73 57.22 57.68 58.56 50.87 50.32 44.46 44.88 44.69 50.66 57.44 55.93 53.98 53.61 53.23 54.24 55.57 57.39 56.16 55.69 55.28 53.98
41.18 42.53 44.70 47.58 48.82 49.80 55.28 56.47 56.34 57.13 58.18 57.61 57.48 57.59 50.04 42.06 36.94 38.11 39.65 56.47 57.62 57.93 57.39 56.47 57.33 58.02 51.28 56.72 47.24 42.62 43.70 43.35 41.47 54.69 54.21 53.69 53.67 50.37 45.36 48.43 49.85 49.36 48.87
38.09 39.23 40.60 42.44 43.26 44.48 45.48 46.68 46.79 45.65 44.37 44.76 44.15 43.78 41.04 36.93 35.47 36.36 36.32 51.95 53.53 51.53 42.30 41.79 44.15 44.86 37.68 41.13 46.81 50.05 46.27 39.44 39.21 44.40 43.24 37.29 34.42 34.13 37.34 41.26 42.14 42.76 43.57
34.90 36.23 38.81 39.47 39.54 40.36 39.76 39.99 40.69 38.63 36.87 36.35 36.56 36.56 36.01 34.55 34.70 35.77 39.02 47.20 46.86 37.60 34.90 34.46 36.91 35.81 34.12 36.05 43.12 44.65 35.79 32.11 33.07 32.69 31.90 31.41 31.24 31.08 31.43 37.70 34.58 34.79 36.29
33.09 34.95 37.19 38.30 38.54 38.11 38.14 36.79 36.03 35.24 33.84 33.56 32.37 32.96 32.91 32.08 33.82 35.24 41.49 45.21 35.26 32.09 31.47 31.43 32.00 32.41 32.21 33.57 38.34 39.58 38.04 31.28 29.49 28.77 27.98 27.69 27.77 28.22 28.05 27.69 29.13 33.18 32.62
35.01 35.19 36.06 37.00 37.78 37.84 37.91 36.32 34.82 33.33 32.57 31.88 31.45 31.51 31.11 31.73 31.80 33.24 33.97 33.30 31.68 29.91 29.18 29.05 30.14 31.05 30.82 31.08 30.88 31.37 30.25 30.14 27.85 27.25 27.15 27.52 25.88 26.07 25.82 26.53 27.47 27.47 27.05
33.45 34.44 34.89 35.12 35.99 37.46 37.26 37.59 37.33 36.13 34.65 33.85 32.90 32.46 32.17 31.71 31.02 31.59 31.69 31.17 30.91 28.81 28.01 29.10 29.80 30.34 30.14 29.73 29.38 29.00 28.76 29.00 27.75 26.83 26.31 25.39 25.07 25.40 26.46 27.03 27.31 27.37 27.73
32.84 32.38 32.74 32.79 34.37 34.00 33.95 34.64 35.32 35.67 34.89 33.80 33.25 32.82 32.64 33.48 31.80 30.17 30.00 30.13 30.38 30.00 30.44 30.36 30.67 30.65 30.56 30.07 30.44 30.76 30.60 30.47 29.52 28.06 27.36 27.54 28.75 29.93 31.33 30.92 30.36 29.15 27.74
32.61 31.49 31.19 28.61 28.35 29.60 30.69 29.99 29.17 31.82 32.39 32.34 32.19 31.09 30.98 30.74 32.07 32.53 32.61 32.22 30.79 30.55 30.39 30.89 29.94 29.57 29.96 30.38 30.92 30.77 31.13 31.13 30.73 29.34 28.74 29.27 30.60 30.02 28.93 30.42 29.72 30.01 28.33
33.07 32.65 31.85 31.10 28.99 26.92 26.09 27.06 27.99 28.37 29.05 29.60 28.39 28.97 29.04 26.72 27.46 29.31 30.97 31.06 31.99 31.58 32.16 32.14 31.38 30.57 29.37 29.15 29.14 29.39 30.07 30.11 28.94 29.50 28.89 28.56 28.54 28.25 27.44 29.00 28.43 27.69 25.48
31.23 30.92 31.01 31.19 31.20 29.80 27.63 24.99 26.53 27.57 27.87 28.02 28.45 28.04 27.89 27.76 27.74 28.50 29.29 29.91 30.83 31.12 30.85 29.19 28.38 28.45 27.77 27.45 27.12 26.59 27.06 26.25 27.34 27.44 27.36 26.66 25.74 25.64 25.84 26.54 26.51 25.32 23.72
28.98 29.57 30.12 30.17 30.20 29.57 29.13 27.83 24.27 24.88 25.09 25.58 26.08 26.19 26.51 26.62 27.68 28.21 28.56 28.59 29.99 29.75 27.62 27.07 26.18 26.51 26.07 26.06 25.57 25.22 23.73 24.40 25.23 25.24 24.87 24.89 25.01 24.39 24.10 24.08 24.31 23.79 22.48
28.90 27.89 28.93 29.18 29.04 29.13 28.48 28.02 28.25 26.31 24.24 23.01 23.94 24.36 25.13 25.72 26.68 28.02 28.69 29.01 26.73 26.73 25.77 24.78 24.30 24.54 24.10 23.32 23.22 23.25 23.55 23.68 23.08 23.03 22.88 22.94 23.41 22.81 22.07 20.94 21.10 20.78 21.26
27.25 28.33 28.60 28.11 28.10 28.12 28.12 27.77 27.34 26.25 25.30 25.31 26.10 25.39 25.75 24.88 25.06 25.55 26.18 25.75 24.36 23.70 23.83 23.49 23.85 23.45 23.27 23.11 22.95 22.29 21.47 20.29 21.17 21.91 21.56 21.01 21.61 21.43 20.22 20.78 20.68 17.39 18.92
26.63 26.34 27.30 27.83 27.96 27.50 27.30 26.70 26.10 25.06 23.54 22.06 20.91 22.18 26.13 25.29 23.15 22.71 23.32 23.64 23.32 22.76 22.67 21.75 21.59 21.81 21.73 21.70 21.31 21.64 21.45 20.72 20.56 20.62 20.07 20.18 20.95 20.88 19.69 19.19 18.48 18.54 18.74
27.56 26.72 26.21 26.50 25.98 25.87 25.37 24.85 24.53 23.84 21.82 19.89 18.66 19.54 21.44 22.03 21.04 20.95 20.65 20.72 21.04 20.83 20.64 20.63 20.04 19.69 20.02 19.97 19.93 19.15 18.28 18.76 17.68 18.27 17.86 18.61 18.21 18.32 18.95 19.00 18.68 18.49 17.58
26.40 26.04 25.77 25.11 24.79 24.61 24.15 23.83 23.40 22.89 22.11 20.71 19.69 18.89 19.40 21.09 20.29 19.29 18.67 18.31 18.89 19.49 19.69 19.19 18.08 17.15 16.52 16.83 17.24 17.68 15.80 15.16 15.13 16.01 16.28 16.63 17.52 17.84 18.13 17.51 16.87 17.14 17.36
25.16 24.91 24.37 23.57 23.61 23.19 22.53 21.93 21.58 21.33 20.32 20.14 19.98 18.97 18.94 18.64 18.22 17.57 16.77 16.95 16.85 16.01 16.13 16.37 15.61 14.59 16.13 15.84 16.00 15.04 13.27 12.94 13.43 11.87 12.93 15.32 16.07 15.18 16.67 16.26 15.62 14.68 14.56
22.81 23.25 21.95 21.30 20.90 21.20 21.09 20.04 18.58 17.21 19.31 19.36 18.82 18.01 17.39 17.06 16.45 15.07 14.90 15.32 15.16 14.49 14.71 14.01 12.02 9.65 10.38 12.83 13.08 12.76 9.22 7.77 10.87 12.02 10.98 12.29 14.06 14.24 14.65 14.44 15.03 14.15 13.97
21.72 21.57 20.84 20.56 20.11 19.96 19.90 19.28 18.64 18.48 18.12 17.91 17.32 16.86 16.56 16.05 15.27 14.95 14.28 13.07 12.63 12.99 12.15 12.35 10.39 11.02 9.40 8.41 8.03 6.81 4.38 3.87 5.61 3.96 9.61 12.37 12.33 10.46 12.29 11.54 12.37 12.28 13.47
19.23 18.77 18.92 19.13 18.63 18.47 18.37 17.71 17.07 16.77 15.84 15.86 15.67 15.36 15.04 13.99 13.95 13.58 12.40 10.97 10.34 10.91 10.60 11.00 9.76 9.11 8.73 11.66 6.54 5.19 3.41 3.13 3.49 2.61 4.48 10.04 11.44 11.57 11.88 11.16 11.64 11.37 11.87

GFSGL_sfc_wetblb_108.txt.gz
Wetbulb
63.93 63.57 63.89 63.53 63.49 63.50 62.60 61.81 61.70 60.01 59.41 58.97 59.38 59.59 59.87 59.58 59.16 57.87 57.31 56.79 56.35 56.43 56.91 57.45 56.99 56.79 56.35 55.97 56.03 55.46 54.14 53.27 50.68 51.77 53.78 53.97 55.05 56.74 58.19 57.83 58.41 58.94 57.90
62.09 61.28 61.78 62.18 62.55 62.06 61.53 61.65 60.16 58.95 59.32 59.35 59.27 58.91 58.80 58.82 58.92 57.89 57.07 56.83 55.97 55.87 56.29 56.27 56.23 56.49 55.77 55.91 55.46 54.98 54.82 54.52 52.91 51.25 52.94 52.98 52.49 54.35 56.30 56.90 57.43 58.02 58.68
59.36 59.62 60.08 60.99 61.33 60.94 60.68 60.88 59.56 58.98 58.68 58.98 59.04 58.62 58.31 58.22 57.58 57.13 56.91 56.47 56.43 55.78 55.52 55.12 55.26 55.36 54.73 55.05 55.20 54.76 54.54 54.53 53.80 52.39 51.83 53.07 53.94 54.68 54.76 55.91 55.09 55.69 57.54
58.13 58.38 58.98 59.63 60.43 60.27 60.59 59.18 58.56 58.67 58.02 58.03 58.25 58.44 58.21 57.95 57.71 57.44 56.66 55.72 55.52 55.77 55.83 55.69 55.42 54.68 54.35 54.14 54.24 54.33 54.25 53.67 53.68 52.71 52.62 52.66 53.04 54.19 55.03 54.03 52.97 54.42 55.74
51.47 56.29 57.79 59.00 59.60 59.74 59.45 58.24 58.30 57.95 57.87 57.70 57.77 57.42 57.45 57.10 54.39 56.85 57.12 56.42 56.12 55.82 56.29 56.57 56.14 54.31 49.92 52.01 54.96 54.63 54.98 54.12 53.55 52.77 51.91 51.12 51.22 51.74 51.73 53.32 53.01 54.25 54.58
41.83 42.63 46.64 53.38 56.75 57.53 57.86 57.69 57.81 57.12 57.28 57.13 56.94 57.35 56.44 45.35 37.96 39.41 49.10 56.22 55.97 55.92 55.12 55.50 55.97 49.89 49.90 44.83 45.48 46.00 52.75 54.94 53.75 52.88 51.33 50.79 51.27 52.79 52.83 52.16 52.26 52.37 48.49
38.51 39.69 41.12 43.65 45.89 48.90 54.09 54.65 54.09 53.76 56.53 54.79 54.65 46.39 41.87 39.58 36.74 38.30 38.41 55.06 54.60 51.72 49.05 50.00 53.31 47.52 45.32 52.11 44.46 41.87 41.75 38.33 37.13 48.76 50.53 51.38 49.63 44.39 44.98 46.61 47.90 47.63 46.60
36.53 37.17 38.68 39.85 40.47 41.14 43.17 42.76 41.91 41.97 42.05 42.05 42.18 41.54 38.69 36.26 35.81 36.81 37.08 51.81 43.51 39.98 38.88 41.34 42.99 40.08 36.93 40.66 47.18 41.10 36.03 34.43 36.46 38.07 36.78 33.09 32.60 33.12 36.29 40.24 41.35 40.79 39.79
34.02 35.27 36.74 37.63 37.67 36.74 36.43 36.94 36.81 35.76 34.68 34.13 34.58 34.40 34.32 34.03 35.20 36.43 42.24 43.60 37.32 34.41 33.61 34.29 35.28 34.25 33.96 36.74 43.77 37.67 32.06 30.33 32.60 32.67 32.18 31.64 31.29 31.00 31.66 37.83 33.76 34.37 34.04
32.69 33.46 35.31 36.56 36.07 34.87 33.52 33.34 35.19 34.70 33.67 33.18 31.91 32.36 32.51 32.15 34.41 35.81 39.35 36.70 32.25 30.85 30.90 31.41 32.21 32.33 32.67 34.15 38.56 36.28 30.66 29.47 29.26 28.61 27.59 28.05 28.56 28.33 28.64 28.55 29.83 32.53 31.58
33.76 33.15 33.39 34.23 34.84 35.71 34.44 33.83 34.92 33.64 33.09 32.21 31.67 31.21 31.10 31.78 32.14 34.24 34.49 32.97 31.04 29.82 29.47 29.45 30.92 32.10 32.10 31.78 31.67 31.43 29.37 28.72 27.58 27.11 26.84 26.72 26.84 26.75 26.75 27.35 27.41 27.63 27.35
32.91 31.78 31.51 32.38 32.64 32.51 32.89 34.64 35.11 34.09 32.66 32.20 31.96 31.33 30.71 30.24 31.57 32.11 32.13 31.87 31.42 29.64 28.54 29.69 30.61 31.47 30.93 30.32 29.51 29.77 29.43 28.64 27.84 26.93 26.65 26.18 26.40 26.99 27.71 27.39 26.40 24.69 24.25
32.12 30.04 29.58 28.81 29.40 30.94 29.68 29.76 31.47 33.11 32.65 31.17 30.39 29.71 29.71 31.40 30.20 30.71 30.80 30.88 30.59 29.53 30.29 30.92 31.23 31.06 30.68 29.82 30.75 31.22 31.12 30.40 29.09 27.48 26.48 26.62 27.51 29.11 29.78 28.51 22.04 20.49 20.10
32.55 31.52 29.98 27.48 26.15 26.91 28.19 27.91 27.12 28.26 28.66 28.09 29.18 27.06 26.61 27.61 29.58 30.78 31.13 30.72 30.84 29.67 29.21 29.59 29.33 28.92 29.38 29.21 29.17 29.58 29.46 29.32 28.32 27.05 26.98 27.76 28.39 27.86 23.54 25.38 24.85 24.28 21.61
31.59 31.68 31.48 28.63 26.38 25.07 25.26 25.98 26.25 27.11 27.81 26.21 25.68 26.22 25.33 25.59 28.36 30.20 30.44 30.20 30.53 30.29 30.55 29.74 28.53 27.79 26.84 26.37 26.43 26.78 27.62 27.73 26.73 27.31 26.98 26.59 23.95 21.47 21.16 22.71 22.68 22.15 18.99
29.51 30.19 30.43 30.95 29.77 26.75 24.50 23.16 26.69 26.73 27.43 27.82 28.25 27.32 27.96 29.18 30.24 30.68 30.80 30.89 30.73 30.32 28.07 26.24 25.83 25.80 24.83 24.54 22.80 21.28 22.02 21.71 23.00 22.68 21.02 21.34 20.87 21.30 22.27 23.15 23.19 20.51 18.37
27.47 29.10 29.21 29.21 29.21 29.59 28.28 24.77 21.20 23.68 25.97 26.53 27.33 27.99 28.67 29.14 29.48 29.33 28.91 28.96 29.37 27.97 24.47 23.89 23.32 23.07 21.90 22.09 21.80 20.94 19.17 20.45 22.28 21.36 20.73 20.51 21.62 21.62 20.27 20.55 20.54 20.61 18.75
28.91 28.34 28.40 28.70 28.40 28.28 27.75 27.60 27.13 23.91 21.74 21.53 25.13 25.44 26.69 27.18 27.75 28.60 28.60 27.24 23.74 24.23 22.92 21.61 20.49 20.58 20.37 19.91 19.50 18.75 19.12 20.14 18.67 19.31 17.64 16.85 16.07 17.61 16.47 16.45 16.37 12.85 16.42
26.58 27.52 28.73 28.25 28.06 27.81 27.34 26.87 26.13 24.58 23.27 23.04 24.11 25.31 25.57 25.78 25.76 25.99 25.94 22.33 20.47 19.72 20.02 19.85 19.85 19.88 19.68 19.95 18.68 15.89 13.59 12.54 12.90 13.93 14.82 14.61 12.38 15.01 12.70 15.07 15.64 11.32 12.76
27.07 25.85 26.98 27.42 27.17 26.67 26.50 25.68 24.49 22.68 20.35 19.09 18.74 19.09 23.86 22.47 20.24 19.38 20.32 20.08 19.28 18.98 18.77 18.26 18.31 18.07 17.36 16.68 14.34 15.38 13.83 13.26 13.30 14.46 9.84 8.70 12.55 11.55 10.75 10.86 9.50 8.91 12.35
26.87 26.54 25.81 26.00 25.85 25.36 24.95 24.23 23.71 21.57 18.95 17.49 16.90 18.18 19.66 19.33 17.81 17.33 16.99 16.72 16.68 16.65 16.38 15.88 14.88 14.70 15.05 15.96 15.54 12.81 12.72 11.23 12.79 12.34 9.76 10.50 7.86 8.21 11.76 10.27 10.92 12.79 12.58
25.69 25.42 24.89 23.99 23.47 23.23 23.23 23.45 22.47 21.59 20.81 18.42 17.20 16.91 16.31 17.41 16.51 15.65 15.01 14.54 14.88 15.47 15.70 15.00 13.75 12.58 12.51 12.45 12.42 12.11 8.33 6.65 5.68 7.91 10.56 9.51 11.70 10.73 11.29 11.93 7.58 7.39 10.00
23.36 23.72 22.67 22.42 23.49 21.82 20.71 20.01 21.06 20.75 19.06 18.46 17.63 16.79 16.03 15.37 15.30 14.72 14.20 13.72 13.29 10.87 11.01 9.96 9.54 10.04 12.03 12.73 10.60 8.13 5.65 4.97 7.91 2.88 3.24 6.31 9.95 5.77 7.35 6.58 6.99 5.07 4.05
21.86 21.26 20.93 20.85 19.21 19.72 20.67 19.08 16.62 13.66 17.00 17.26 15.69 14.66 14.73 14.65 12.06 9.88 9.76 11.90 9.26 8.07 11.24 10.03 6.21 4.96 5.64 5.74 7.30 4.62 4.07 0.74 3.78 2.68 2.55 4.75 5.43 5.92 4.17 4.62 7.12 2.86 7.03
19.52 19.29 19.24 18.89 18.67 18.84 18.47 17.51 16.83 16.52 16.18 16.08 15.35 14.84 14.35 13.21 13.14 12.15 10.82 7.13 7.96 9.23 7.43 6.58 4.51 4.99 2.93 2.88 1.61 0.63 -2.52 -2.18 -4.66 -3.67 -0.77 2.87 3.80 1.76 6.18 4.11 5.34 3.16 2.78
16.88 16.81 16.85 16.95 16.63 16.48 16.77 15.94 15.06 14.70 13.40 13.77 12.78 11.62 11.89 10.71 12.17 10.91 8.57 6.13 5.86 6.51 6.97 7.30 4.46 3.88 5.36 4.09 1.70 -0.20 -2.24 -3.19 -5.59 -5.08 -5.50 2.39 5.40 4.81 1.51 -1.20 1.36 2.73 4.06

GFSGL_sfc_wetblb_111.txt.gz
Wetbulb
59.40 62.28 62.46 62.39 62.02 61.43 61.74 61.28 60.53 59.36 58.32 58.14 58.23 59.62 59.42 59.49 59.16 58.45 57.89 57.86 57.25 57.43 57.67 57.57 57.06 57.29 56.95 56.41 55.65 54.87 53.88 52.83 49.88 51.31 53.73 55.59 54.69 56.18 57.45 57.36 56.90 56.67 56.48
58.19 58.09 59.45 60.40 61.06 60.96 60.73 59.72 59.43 57.88 58.02 57.21 57.27 57.92 59.32 59.33 58.79 58.03 56.97 56.91 56.75 55.99 56.51 56.55 56.91 57.07 56.51 56.65 56.29 55.71 55.69 55.21 53.55 52.20 52.72 53.20 53.37 54.04 55.20 55.60 56.96 58.15 57.89
55.04 57.41 57.91 58.45 59.64 59.95 60.02 58.81 58.56 58.03 57.62 57.24 57.69 58.14 58.53 59.04 58.47 57.95 57.39 56.49 56.43 56.13 56.35 56.15 56.45 55.97 55.59 55.73 55.79 55.51 55.61 55.37 54.65 54.16 53.09 53.84 53.73 53.15 52.95 53.90 54.46 55.75 56.46
46.30 49.52 54.08 58.69 59.59 60.22 59.49 58.56 58.25 58.09 57.75 57.52 58.54 58.28 57.99 57.66 57.73 57.75 57.35 56.85 56.65 56.55 56.59 56.39 56.17 55.73 55.61 55.13 55.21 55.07 54.97 54.24 53.68 53.27 52.86 52.36 52.37 53.67 54.33 53.08 51.84 54.12 54.31
41.67 43.05 44.23 47.28 58.45 58.23 58.52 58.17 58.19 58.01 57.98 57.56 57.87 57.45 57.85 57.47 54.53 56.91 56.51 55.75 55.61 55.39 55.57 56.01 55.93 54.27 50.17 52.29 55.00 54.55 54.17 53.34 52.98 52.28 51.83 51.97 52.09 51.15 50.12 51.46 51.85 52.52 52.92
38.88 39.70 41.48 42.60 45.06 52.83 57.34 57.45 57.24 57.14 57.12 56.82 56.51 56.09 47.78 44.53 38.18 39.65 52.18 55.81 55.75 55.30 54.73 55.31 55.89 49.57 48.60 44.89 45.38 47.14 51.73 53.78 52.92 52.43 52.04 51.26 51.21 51.64 52.54 51.92 51.51 50.08 48.59
36.87 38.29 39.14 39.44 40.48 41.80 43.49 50.53 52.11 54.80 53.19 52.04 48.70 45.79 41.61 39.55 36.80 38.88 39.55 55.95 54.40 50.43 50.00 52.67 52.47 46.37 46.81 52.40 43.85 38.73 36.64 36.84 36.19 50.26 51.61 49.66 48.74 41.65 44.61 47.80 48.27 48.33 46.68
35.07 35.97 37.08 37.80 38.13 38.37 38.61 36.79 37.69 38.92 39.89 39.55 38.97 38.45 37.11 36.57 35.93 37.39 40.31 45.05 40.88 39.02 39.01 41.03 42.06 40.23 37.16 43.34 43.54 37.74 34.53 33.96 35.40 36.80 36.16 33.21 32.97 33.63 37.11 40.43 41.52 41.15 35.28
32.48 33.90 35.21 36.17 36.40 37.02 35.56 34.61 34.84 34.18 33.78 33.77 34.36 34.39 34.39 34.34 35.78 37.76 41.14 38.45 34.70 33.36 33.65 34.51 35.19 35.39 34.61 38.54 38.39 33.35 30.75 30.31 32.95 33.08 32.64 32.37 32.16 32.09 33.42 38.02 34.31 35.22 32.91
31.62 32.45 33.83 34.21 33.74 33.86 34.35 33.45 33.72 33.44 31.98 32.44 31.83 32.55 33.05 32.85 35.19 36.19 36.75 34.95 31.54 30.81 31.34 31.85 32.84 32.84 33.93 35.80 37.38 33.44 29.49 28.89 28.74 28.28 27.95 28.40 29.01 29.45 29.27 29.39 30.66 33.08 32.32
31.71 30.97 30.56 31.93 32.13 32.16 33.75 33.48 32.94 33.08 32.44 31.77 30.50 30.34 30.92 31.63 32.38 34.40 34.18 32.35 30.93 30.00 29.88 29.72 30.94 32.48 33.02 33.26 33.35 32.24 29.73 29.19 28.03 27.75 27.50 27.80 27.86 27.40 27.29 27.68 27.70 28.90 27.04
30.73 29.46 28.51 28.83 30.55 30.58 30.63 31.90 32.20 32.22 31.81 31.05 30.09 29.97 30.11 30.51 31.90 32.40 32.75 32.18 31.90 29.85 29.24 30.42 31.42 32.21 31.76 31.18 30.03 30.23 29.73 29.07 28.56 27.98 27.58 27.15 27.05 26.04 24.64 23.62 22.87 22.95 22.95
30.73 28.46 27.45 27.23 27.73 28.82 27.66 27.89 29.26 29.88 30.43 28.57 27.84 27.53 28.63 30.91 30.40 31.53 31.37 31.12 30.88 29.74 30.32 30.83 30.96 30.77 30.72 29.90 30.71 30.66 30.03 29.19 27.72 26.25 25.73 26.11 26.87 24.69 22.15 20.85 20.99 21.01 20.21
31.39 28.62 27.02 25.70 25.47 26.23 26.82 26.89 26.65 26.69 26.22 26.80 26.21 25.97 27.13 28.57 29.52 30.72 30.56 30.12 30.51 29.49 29.08 28.83 28.20 27.99 27.87 28.16 28.47 29.04 29.08 28.34 26.01 25.38 25.38 23.43 20.35 19.90 19.60 19.37 19.17 19.69 18.51
30.03 30.24 28.55 26.10 24.53 24.21 25.37 25.29 25.74 27.38 27.36 25.61 25.80 26.51 26.62 27.25 29.84 31.04 30.64 29.87 29.75 29.46 28.79 28.06 26.47 25.04 23.58 23.35 23.51 23.69 24.84 25.42 23.69 23.85 22.46 20.58 20.61 22.12 21.19 21.59 21.63 19.86 17.70
27.44 27.96 28.53 29.14 25.69 24.16 22.96 23.07 27.42 27.69 28.85 29.40 29.60 28.25 29.21 30.12 30.62 30.64 30.33 30.02 29.50 28.78 26.29 24.16 23.40 23.08 21.72 20.78 19.96 20.45 21.64 21.27 21.25 21.43 20.35 20.83 20.14 21.02 21.07 21.63 21.21 19.07 17.13
26.15 26.57 27.12 27.46 27.61 27.59 23.66 22.14 19.57 23.32 27.06 27.57 28.22 28.92 30.11 29.44 29.27 28.99 28.72 28.04 27.40 25.54 21.49 20.53 19.82 19.44 19.58 20.15 20.27 19.89 18.82 19.75 21.17 20.00 19.50 19.38 19.85 19.01 17.86 17.80 17.57 18.28 17.81
24.65 26.53 24.03 24.30 25.37 25.44 25.45 25.01 22.28 19.92 18.77 20.75 25.99 26.29 27.31 27.62 27.74 27.27 26.24 24.62 20.94 21.60 20.63 19.65 19.18 19.26 19.09 18.53 18.38 18.20 18.10 18.47 18.03 17.65 16.43 15.68 15.70 17.03 16.01 15.62 15.44 11.94 15.69
23.39 24.28 25.45 24.49 24.65 23.81 23.70 23.08 21.51 19.87 18.45 18.12 19.21 23.00 23.14 24.72 24.51 24.39 23.66 19.33 17.86 17.50 17.69 17.25 17.73 18.21 17.75 17.78 16.24 15.25 14.23 13.79 13.35 12.20 12.94 13.66 9.66 13.84 11.69 13.07 12.67 9.39 11.78
24.04 23.27 23.54 22.26 21.85 22.19 22.55 20.23 18.69 17.43 16.58 16.13 16.45 18.24 19.26 18.34 15.85 15.43 16.46 16.31 15.95 15.91 15.61 14.72 14.83 14.66 14.64 14.22 13.00 11.29 12.30 12.41 12.01 11.89 7.55 7.26 5.29 8.88 8.51 8.20 6.89 5.66 11.19
23.14 17.79 18.08 19.71 21.08 20.26 20.26 19.96 15.05 15.27 14.77 13.45 15.25 16.93 16.73 15.80 14.33 13.84 13.89 13.20 13.71 13.72 11.60 11.63 10.26 10.36 11.47 11.60 11.33 9.26 7.17 4.88 6.68 7.34 8.49 9.28 1.80 4.58 6.59 7.34 8.84 11.50 10.53
19.61 18.23 18.36 18.37 15.19 16.73 18.53 19.33 17.35 16.30 13.10 13.50 15.19 15.02 13.51 13.45 13.18 12.49 10.61 8.40 8.14 10.35 10.01 9.19 9.74 9.57 9.18 7.72 6.45 4.17 2.60 1.80 1.94 0.61 2.77 6.46 6.68 6.78 7.88 5.78 2.96 3.33 6.41
16.15 17.09 14.77 15.70 17.13 11.75 11.02 14.72 15.37 13.42 11.40 11.90 11.35 10.58 10.12 8.44 9.82 10.14 9.46 1.93 5.74 3.30 3.96 3.22 2.62 5.34 6.77 2.92 2.05 1.21 -1.33 -1.87 0.12 -6.04 -4.05 -0.43 2.15 1.54 0.12 1.55 5.26 1.80 0.70
15.31 15.64 16.81 17.20 13.98 12.20 13.87 10.00 8.69 9.63 10.94 6.46 3.55 3.48 4.24 1.99 0.54 0.20 2.43 -0.24 -0.75 -1.21 -1.75 -2.33 0.41 1.40 2.26 -2.73 -3.63 -2.25 -0.38 -5.51 -3.25 -4.36 -8.05 -3.86 0.27 1.99 -2.00 -0.00 0.12 -3.58 0.03
10.33 10.83 12.40 14.00 13.31 14.41 13.24 9.93 7.01 5.19 5.19 6.79 7.93 8.09 10.35 8.58 6.67 -0.49 -3.71 -3.53 0.96 -0.13 -2.75 -2.66 -3.96 0.49 -2.17 -4.28 -4.12 -3.57 -5.48 -6.06 -9.61 -8.29 -7.27 -3.72 0.05 0.64 0.99 0.09 -3.08 -1.62 -4.03
10.60 8.25 7.55 7.73 7.78 8.07 10.81 11.16 9.80 8.21 8.60 8.77 7.73 4.16 4.26 6.99 5.90 2.48 -2.82 -1.04 2.48 -0.89 3.16 -3.18 -1.03 2.08 -0.18 -2.16 -3.02 -4.96 -7.17 -7.00 -9.37 -8.80 -11.29 -4.95 -7.19 -5.42 -6.98 -6.83 -4.53 -5.69 -1.14

GFSGL_sfc_wetblb_114.txt.gz
Wetbulb
46.99 54.44 60.20 62.09 62.33 61.38 61.15 60.84 60.22 59.60 59.50 59.55 59.78 60.08 59.36 58.21 58.23 57.70 57.47 57.31 57.50 57.14 57.30 56.96 56.80 57.18 56.52 56.38 56.32 55.75 54.38 52.48 52.10 52.59 54.57 55.80 55.22 56.25 56.99 55.91 56.47 55.77 54.59
45.11 49.47 58.38 59.37 59.64 60.82 60.76 60.48 60.18 59.52 59.77 59.33 59.39 59.43 59.41 58.85 58.44 57.50 57.14 57.30 56.98 56.94 57.06 56.86 56.50 56.74 56.54 56.48 55.98 54.93 54.10 53.64 52.40 51.37 52.29 53.63 54.57 54.84 55.47 56.34 56.91 57.62 57.25
43.09 45.48 49.12 50.92 58.89 59.03 59.14 59.55 59.46 59.08 59.02 58.13 58.26 58.62 58.81 59.05 58.35 58.25 57.90 57.22 57.24 57.16 57.14 56.88 57.04 56.90 56.14 56.58 56.66 56.30 56.12 55.78 54.74 53.52 53.20 53.65 54.39 54.16 54.35 54.26 54.29 56.04 56.43
41.05 42.13 42.94 45.73 48.81 58.93 57.62 58.30 58.47 58.59 57.99 57.50 57.49 57.62 58.80 59.00 58.96 58.42 57.68 56.94 56.80 56.84 56.84 56.90 56.78 56.54 56.16 55.98 55.80 55.86 55.62 55.30 55.18 54.46 54.55 53.09 53.40 54.35 54.09 52.84 52.61 53.64 53.38
38.74 39.57 40.60 42.24 43.76 46.80 56.90 57.08 58.13 58.10 57.97 58.07 57.81 57.04 57.42 57.88 56.02 57.69 57.54 56.82 56.28 56.04 56.36 56.44 56.56 54.95 50.60 52.90 55.64 55.04 54.61 54.01 53.51 53.07 52.08 51.84 51.74 51.33 51.41 53.10 52.67 52.19 50.21
36.96 37.33 39.02 40.50 40.84 40.88 43.32 53.58 57.46 57.51 57.31 57.31 57.12 56.42 51.80 46.23 38.33 39.89 51.73 56.24 56.12 55.62 54.84 55.48 55.82 49.31 48.92 44.66 45.74 45.93 49.95 53.81 53.01 52.43 52.02 51.19 51.80 52.03 50.93 51.06 51.59 49.41 47.94
35.72 35.80 37.04 37.81 38.74 38.84 39.12 39.18 41.10 43.83 49.84 47.97 47.52 46.46 42.54 39.79 37.24 39.12 39.10 55.86 55.30 54.52 53.66 54.42 53.84 48.94 48.55 52.44 38.86 37.36 36.77 36.18 35.40 51.10 52.43 52.13 51.33 49.08 48.26 49.71 49.22 48.11 46.42
32.41 34.20 34.84 35.89 36.34 37.48 37.60 35.75 35.08 35.60 36.43 37.28 36.96 37.59 37.52 37.37 36.43 37.93 39.56 45.54 41.97 39.76 39.53 41.08 44.43 42.34 39.22 45.95 44.88 38.16 34.59 34.20 35.28 37.07 37.25 35.09 34.47 35.59 39.71 42.38 43.48 36.97 34.58
30.26 30.63 32.62 33.80 34.01 34.85 33.76 34.15 34.51 33.58 32.89 31.91 33.01 33.25 33.73 34.54 36.18 37.90 40.20 37.99 34.79 33.46 33.85 34.69 35.53 36.69 35.25 39.61 39.30 33.76 31.12 30.65 33.43 33.67 33.22 32.81 32.67 33.06 34.86 38.73 35.76 36.26 32.30
29.31 29.36 30.64 32.05 31.91 32.42 32.78 33.24 33.28 33.22 32.59 32.29 31.53 31.85 32.59 32.40 35.02 35.56 35.85 34.71 32.04 31.15 31.48 31.87 33.16 33.87 35.06 36.45 36.22 33.85 29.84 28.46 28.77 28.85 28.76 29.03 29.64 30.07 29.80 30.38 32.62 33.77 30.71
30.01 29.40 29.01 29.60 30.28 30.53 32.11 32.15 32.33 32.15 32.32 31.89 31.22 30.90 31.34 31.73 32.24 34.39 34.04 32.30 31.30 30.36 30.22 30.17 31.46 32.94 33.69 33.63 33.06 31.67 29.48 29.43 28.73 28.71 28.49 27.58 26.91 27.07 26.95 27.83 28.36 30.99 28.43
29.71 27.94 27.30 27.77 28.78 29.14 28.92 30.24 30.26 31.10 29.68 29.39 30.28 29.97 30.05 30.86 32.00 32.53 32.72 32.42 31.96 29.77 29.14 30.36 31.65 32.17 31.83 31.20 30.49 30.80 30.41 29.91 29.50 28.61 27.55 25.83 23.68 23.48 23.74 23.89 24.52 24.52 24.84
27.86 25.72 25.16 26.29 26.36 27.04 26.92 27.35 27.20 27.90 27.95 27.55 27.77 27.87 28.38 30.05 30.20 31.67 31.35 30.74 30.45 29.01 29.20 29.83 30.32 30.70 30.57 29.88 30.21 29.72 29.28 28.57 27.70 26.57 26.13 26.52 25.16 24.08 23.88 22.77 23.16 22.74 23.56
29.23 26.05 24.90 24.29 24.64 25.82 26.31 26.87 26.48 25.86 25.64 26.18 26.53 27.08 28.14 28.85 29.57 30.28 30.21 30.11 30.30 29.04 27.89 27.17 26.85 26.73 26.06 26.42 27.15 27.63 28.01 27.63 26.73 25.53 22.73 19.13 20.75 21.60 21.35 23.64 21.94 21.84 20.73
27.48 28.24 27.07 24.59 23.48 23.26 25.16 26.25 26.50 28.10 28.30 26.31 27.03 27.94 27.48 27.45 29.42 30.67 29.98 28.50 28.30 27.99 26.86 25.78 24.14 23.45 22.28 22.60 22.83 22.85 22.57 23.10 22.42 22.45 22.38 22.36 22.46 22.55 21.77 22.37 21.46 20.43 18.13
25.72 25.99 26.68 26.85 23.53 22.69 21.93 22.13 27.47 27.90 29.01 29.92 30.27 28.20 29.14 30.25 30.49 30.16 29.67 29.23 28.31 26.95 23.83 21.77 21.00 20.82 20.26 20.39 20.47 20.59 21.27 21.16 21.88 21.93 21.41 21.56 21.00 21.01 20.64 21.18 20.54 18.66 17.05
25.04 25.96 24.93 25.40 25.69 24.30 21.18 21.15 18.47 22.44 27.28 27.77 28.29 29.19 29.49 28.68 28.51 28.18 27.55 26.65 25.85 24.01 19.83 19.19 18.57 18.75 18.81 19.61 19.84 19.68 18.61 19.57 20.45 19.65 19.33 19.52 19.49 19.11 18.92 17.92 18.18 18.77 16.75
21.18 23.47 23.10 22.31 20.95 21.21 18.95 18.07 17.64 17.92 17.16 18.16 23.95 25.55 26.45 26.26 25.88 25.50 24.68 22.79 19.36 19.95 19.23 18.44 18.03 18.13 18.36 18.07 17.95 17.91 17.54 17.57 17.34 17.19 16.38 15.97 16.80 17.33 16.57 15.90 15.57 14.99 16.63
22.01 22.13 20.85 19.99 21.67 21.55 18.60 17.50 16.28 16.20 15.31 16.06 18.04 19.94 19.68 22.93 22.34 22.10 21.30 17.23 15.96 15.91 16.51 15.87 16.29 16.32 16.14 15.42 14.54 14.32 13.92 13.14 12.72 12.36 12.81 13.28 12.32 14.72 13.22 13.35 13.19 11.71 12.57
20.84 18.03 17.78 18.00 17.78 20.02 15.46 14.42 15.12 14.78 14.86 15.75 15.44 15.85 16.74 15.74 13.56 12.84 13.51 13.50 12.46 12.46 12.75 13.11 13.25 13.02 12.19 11.91 9.54 9.15 9.00 8.65 9.02 10.69 8.98 7.49 7.87 10.51 9.36 10.36 8.84 8.90 10.12
18.90 15.74 12.73 14.78 16.18 18.07 16.72 9.76 10.57 12.99 14.18 13.95 13.66 14.50 14.80 13.23 11.27 10.76 10.54 9.93 10.64 10.40 9.27 9.80 9.15 8.68 9.49 8.02 7.79 5.24 3.72 2.34 4.60 5.38 6.29 7.53 3.31 6.67 8.10 8.52 8.13 9.49 9.88
13.20 12.47 13.87 15.54 11.74 11.57 15.23 15.95 11.02 8.63 12.91 13.58 12.48 12.45 11.61 10.94 10.31 8.41 7.03 5.07 5.16 6.86 6.01 6.17 7.54 6.01 4.27 3.86 2.77 -0.20 -1.01 -1.79 -1.84 -1.48 0.46 2.53 4.56 5.17 5.39 3.13 1.57 -0.09 5.14
13.12 13.32 13.59 13.34 13.11 7.64 8.01 13.51 11.65 11.25 9.50 5.72 7.09 7.94 7.93 5.07 5.78 6.59 2.24 -4.29 2.47 1.34 1.40 2.10 2.69 2.64 0.63 -1.77 -0.90 -1.91 -2.65 -5.56 -6.28 -7.91 -6.10 -4.84 -0.52 0.38 -4.14 -1.00 -0.32 -0.05 -1.48
9.65 9.78 13.49 13.03 13.63 10.54 5.63 2.96 7.44 10.23 7.52 2.37 1.31 2.27 1.72 -1.25 -2.11 -2.29 -5.74 -7.73 -3.60 -8.46 -9.37 -4.56 1.22 0.97 -1.58 -8.47 -6.16 -3.79 -1.70 -9.37 -7.62 -8.84 -11.00 -9.37 -4.47 -0.54 -3.94 -1.85 -2.03 -6.67 -4.47
4.51 4.22 5.64 7.05 8.17 8.68 7.80 6.40 -1.03 -2.48 4.00 5.88 4.66 6.46 6.50 1.98 0.98 -6.10 -5.56 -2.84 -2.53 -3.53 -3.52 -3.78 -1.66 -2.26 -4.12 -5.90 -6.08 -4.92 -7.38 -9.73 -12.29 -11.18 -9.18 -6.84 -7.57 -7.81 -6.36 -5.27 -8.64 -4.32 -6.28
7.04 4.19 1.44 0.11 0.36 -0.69 2.70 3.89 4.43 3.19 2.71 0.94 -0.67 -1.58 0.77 1.90 -0.44 -6.02 -3.84 -2.48 -0.86 -0.92 -1.82 -4.66 -1.07 -2.28 -3.46 -2.60 -3.08 -5.80 -9.27 -8.47 -11.37 -11.36 -15.35 -8.17 -8.92 -9.19 -9.37 -8.64 -7.59 -7.92 -3.94

GFSGL_sfc_wetblb_117.txt.gz
Wetbulb
42.51 44.93 47.68 50.66 59.80 62.00 61.18 60.64 60.70 60.09 59.76 59.46 60.54 59.84 58.73 57.99 57.45 56.93 56.47 56.61 56.25 56.67 57.23 56.71 56.21 56.57 56.27 56.31 55.89 55.27 54.62 53.39 51.46 52.08 53.94 54.99 55.00 55.94 55.60 56.80 56.26 56.11 56.48
41.73 43.34 45.06 47.08 50.72 61.21 60.48 60.17 59.40 58.99 59.54 59.66 60.31 59.81 59.42 58.64 57.75 56.87 56.27 56.49 56.21 55.87 56.45 56.59 56.15 56.53 56.01 56.37 56.07 55.31 54.66 54.55 53.31 51.22 51.98 52.99 53.53 55.73 56.32 55.59 56.07 56.60 56.06
40.41 41.20 42.40 43.77 45.99 48.62 58.41 59.79 59.35 59.06 59.06 59.35 59.87 59.33 58.89 58.72 57.80 57.34 57.18 56.75 56.51 56.92 56.97 56.59 56.63 56.37 55.93 56.11 55.89 55.43 55.33 54.86 54.06 53.45 52.62 53.25 54.21 54.37 53.88 54.55 55.07 55.81 56.37
38.62 39.09 39.46 41.22 42.92 43.80 48.93 58.30 59.09 59.06 58.83 58.73 59.39 59.47 58.97 58.52 58.15 57.60 57.56 57.25 57.11 57.22 57.62 57.42 57.12 56.75 56.35 56.27 56.01 55.87 55.71 54.97 54.51 53.57 53.37 52.73 53.20 54.04 54.47 53.76 53.00 54.19 53.05
36.61 37.01 37.74 39.15 41.09 41.25 42.81 44.91 54.99 58.15 58.23 58.11 58.47 58.62 58.53 58.32 58.47 57.97 57.91 57.29 56.95 56.81 56.97 57.09 57.37 55.61 51.14 53.34 56.23 55.95 55.65 54.92 54.74 54.18 53.42 51.68 52.15 51.17 52.60 53.35 53.23 53.53 51.30
33.83 34.24 36.39 37.62 38.09 38.72 39.10 39.44 39.15 41.69 52.52 57.51 57.41 57.33 56.41 47.46 38.94 44.54 54.03 57.19 56.67 56.07 55.41 55.91 56.49 49.74 49.36 45.09 45.99 46.36 52.25 54.56 53.28 52.49 52.39 51.58 51.81 52.25 52.44 52.48 52.10 50.07 47.03
32.27 32.60 33.41 35.49 36.12 36.54 37.40 37.45 36.70 35.69 37.04 38.53 42.00 44.73 40.89 38.76 37.41 38.65 42.55 56.83 56.15 55.93 55.23 55.08 54.96 53.21 49.76 51.85 38.20 37.54 36.77 36.36 36.75 52.46 52.55 52.28 51.54 51.36 50.66 49.44 49.73 48.81 46.30
30.03 30.69 31.77 32.56 33.61 35.05 35.44 35.02 35.91 36.10 34.16 33.68 34.64 36.40 37.18 36.29 37.59 38.51 37.62 49.76 44.49 41.34 41.22 43.19 49.60 46.59 41.80 47.17 44.64 39.75 35.51 34.73 35.65 38.18 39.45 36.50 36.05 37.58 42.33 45.73 46.29 37.63 34.63
28.29 28.45 29.64 31.24 31.04 31.78 32.27 33.08 34.05 34.38 33.60 32.64 33.09 33.23 33.95 34.46 35.52 36.31 39.44 38.52 35.55 33.84 34.32 35.34 37.54 39.32 36.10 39.91 41.75 35.02 31.59 30.92 33.60 33.81 33.47 33.29 33.15 33.89 35.91 40.55 36.19 37.23 32.55
27.51 27.78 28.75 29.19 29.69 29.66 30.75 30.81 32.55 32.50 32.03 32.75 32.17 32.23 32.50 32.04 35.04 35.04 34.75 33.50 31.83 31.70 31.79 32.22 33.42 34.87 35.52 36.97 38.47 35.33 30.85 28.88 29.07 29.37 29.11 29.27 29.85 30.17 30.22 31.27 33.67 34.56 31.77
27.45 26.90 26.76 27.45 28.45 28.61 29.69 30.30 30.00 30.61 31.17 31.55 31.41 30.98 30.92 31.59 32.34 34.55 34.72 33.21 31.85 30.48 30.20 30.57 31.56 33.44 34.17 34.35 33.99 32.42 29.54 29.66 29.13 28.27 27.34 27.06 26.94 26.40 26.79 27.82 29.35 32.34 31.90
26.70 24.93 24.50 24.94 26.66 27.95 27.83 28.50 28.85 29.01 28.62 28.82 29.18 29.18 30.05 30.12 31.77 32.09 32.44 32.19 31.81 30.02 29.14 30.43 31.26 32.27 32.14 31.98 31.16 31.41 31.07 30.28 29.49 27.55 25.18 23.56 23.55 23.73 24.20 24.50 25.05 24.92 25.14
28.44 25.11 24.08 24.52 25.39 25.70 25.91 26.19 27.24 27.59 27.59 27.55 28.01 28.00 28.43 29.70 30.27 31.22 31.28 30.27 29.35 27.75 28.27 28.61 29.26 29.78 29.85 29.23 29.70 29.70 29.37 29.07 28.38 26.47 23.50 22.16 22.91 24.06 24.72 24.81 25.19 24.87 24.30
26.89 27.64 24.93 23.24 23.16 25.43 26.27 26.68 26.75 26.66 25.46 26.51 27.18 27.09 27.99 28.76 29.07 29.15 28.79 28.59 28.75 27.28 26.48 25.93 26.01 26.33 25.73 25.76 25.89 26.45 26.34 26.76 25.43 23.87 22.65 23.37 23.95 23.92 22.88 23.38 21.83 21.67 20.88
25.80 26.09 26.57 23.97 22.71 22.19 23.64 25.87 26.21 27.60 28.68 26.02 26.31 27.38 26.66 26.29 28.50 29.79 28.82 27.17 26.21 26.05 25.37 24.52 23.24 22.90 22.36 22.77 22.78 22.98 23.56 23.52 22.81 23.55 23.10 22.54 22.39 22.57 21.66 22.63 21.33 19.69 17.82
24.46 24.78 24.40 25.15 22.75 22.04 21.04 20.47 25.58 26.89 27.98 28.89 29.53 26.91 27.68 28.59 28.63 28.72 28.21 27.58 26.52 25.58 21.99 20.25 19.59 19.98 19.76 20.11 19.91 20.10 20.79 21.05 21.91 22.23 21.61 21.44 20.89 20.68 20.50 20.96 20.48 18.79 16.72
22.68 23.70 23.21 23.05 23.08 21.78 19.97 18.97 17.05 20.34 24.28 25.29 26.50 27.13 27.03 26.72 26.85 26.45 25.84 25.42 24.71 22.83 18.98 18.35 17.92 18.28 18.65 19.24 19.26 18.93 17.91 19.33 20.65 19.85 19.72 19.74 19.89 19.49 19.15 18.89 18.92 18.03 16.80
18.68 18.93 18.42 18.92 17.22 15.92 14.12 12.33 11.78 12.18 12.29 16.20 21.53 22.26 24.27 24.30 24.16 23.94 23.06 21.07 17.31 17.99 16.88 15.91 16.00 16.80 17.06 16.55 16.45 16.25 15.80 16.19 16.49 17.04 16.62 16.74 17.36 17.90 16.87 16.62 16.92 16.79 16.83
19.36 17.99 16.24 14.84 17.01 13.91 12.03 11.46 11.13 11.32 10.88 13.45 15.66 16.49 16.94 20.50 20.32 19.96 19.03 14.17 13.07 13.36 14.20 13.87 13.95 14.16 13.78 12.92 12.17 12.05 11.71 11.56 12.04 12.00 12.55 13.53 13.64 15.25 13.83 14.41 13.63 13.00 14.54
17.58 15.89 13.36 14.23 15.48 13.35 10.17 9.47 10.89 11.99 12.13 11.80 13.04 12.98 13.83 12.59 10.24 9.82 10.18 10.40 10.22 10.55 11.22 11.36 11.49 10.83 9.65 9.57 7.92 8.27 8.52 8.38 9.25 10.75 9.22 8.43 8.97 11.34 10.24 9.82 9.87 10.14 10.76
10.36 10.74 10.99 11.66 10.76 14.46 10.07 6.35 6.69 8.99 10.14 10.29 10.62 12.49 11.50 9.95 7.86 7.50 8.14 7.66 7.48 7.60 7.50 8.53 6.71 5.80 6.94 6.00 5.79 3.89 2.60 2.09 4.64 5.71 6.68 7.70 5.62 8.57 9.98 9.70 9.57 10.00 10.15
12.58 11.05 11.52 10.96 8.40 7.10 11.07 12.65 9.75 5.91 6.43 6.78 6.63 9.57 7.66 7.55 6.47 5.36 3.94 1.45 1.52 5.20 5.70 5.22 3.88 3.30 2.12 1.56 1.24 -2.73 -2.76 -4.26 -2.63 -1.79 1.12 3.41 5.94 5.69 6.48 5.78 4.05 2.17 6.75
7.51 8.06 10.75 12.35 10.30 5.50 5.69 8.56 6.44 2.83 2.05 -0.12 3.44 3.93 3.03 -1.51 -0.60 0.61 -1.73 -3.89 1.40 -0.76 1.05 2.08 0.49 0.01 -1.49 -4.50 -3.42 -2.61 -3.75 -6.08 -6.77 -6.59 -8.39 -4.24 1.38 2.02 -2.18 -0.43 -0.38 -0.72 -2.27
5.29 4.63 8.69 10.29 9.78 9.49 3.85 0.49 2.49 5.37 4.78 -0.78 -4.22 -3.16 -3.50 -6.40 -9.66 -8.39 -10.02 -9.84 -8.39 -8.94 -9.12 -5.14 -1.22 -1.41 -2.22 -9.30 -7.34 -4.47 -2.24 -9.85 -7.89 -8.03 -12.92 -10.57 -4.24 -1.08 -4.43 -3.38 -4.24 -8.75 -7.49
-0.17 -2.06 -1.92 0.49 -0.05 3.47 2.88 1.70 -1.68 0.10 2.39 1.52 -0.05 0.67 0.67 -4.04 -4.59 -9.66 -6.76 -6.40 -6.42 -7.67 -3.00 -4.08 -3.57 -5.08 -5.67 -4.93 -4.43 -4.35 -5.74 -6.40 -8.94 -7.85 -9.31 -8.29 -6.88 -8.46 -7.67 -6.79 -10.02 -5.32 -8.03
3.22 0.20 -2.77 -4.58 -5.67 -6.22 -1.68 -0.09 0.60 -0.83 -4.04 -4.04 -5.85 -6.22 -1.35 -0.34 -3.55 -10.02 -7.30 -2.95 -5.13 -5.13 -4.59 -6.40 -5.52 -5.78 -5.55 -4.80 -4.40 -6.40 -7.14 -6.76 -8.94 -10.75 -12.93 -6.95 -8.24 -10.02 -10.57 -10.39 -8.95 -9.12 -5.67

GFSGL_sfc_wetblb_120.txt.gz
Wetbulb
40.59 42.06 43.41 44.67 46.66 49.22 57.96 60.87 61.21 59.83 60.06 59.84 60.91 60.76 60.64 59.52 59.13 58.59 58.17 57.21 56.61 55.91 56.61 57.07 56.77 57.00 56.21 56.17 56.07 55.89 55.39 54.52 51.84 52.98 55.73 56.87 56.09 55.83 55.73 56.59 56.84 56.38 55.49
39.67 40.60 41.54 42.72 44.13 45.68 47.91 53.05 60.11 59.75 59.63 59.14 59.68 60.52 59.86 59.11 58.71 58.01 56.85 56.37 55.75 55.25 56.41 56.67 56.39 56.35 56.21 56.43 56.15 55.43 54.97 54.41 52.81 51.41 52.99 53.65 54.90 55.95 56.45 55.37 56.04 56.59 56.99
37.62 38.50 39.45 39.90 41.33 42.34 44.34 47.12 54.86 59.41 59.67 59.53 59.84 59.94 59.53 58.63 57.97 57.96 57.38 56.43 56.11 55.55 55.93 56.25 56.35 56.27 55.65 55.95 55.85 55.33 55.37 54.77 54.33 52.94 52.45 53.65 54.40 54.81 54.50 54.97 55.59 55.87 55.73
36.06 36.00 36.78 38.21 39.05 40.40 41.95 42.54 44.18 47.96 58.33 58.97 59.57 59.81 59.59 59.03 58.22 57.96 57.26 56.27 55.65 55.73 56.42 56.48 56.92 56.57 56.25 55.81 55.75 55.59 55.37 54.79 54.33 53.72 53.49 52.47 53.12 53.80 54.29 53.95 53.29 54.34 50.37
34.60 34.78 35.01 37.04 38.11 38.36 39.80 40.65 41.33 40.88 42.98 45.04 58.56 59.08 59.30 58.91 58.47 58.01 57.30 56.73 56.35 55.93 56.65 57.12 57.40 55.59 51.19 53.68 56.19 55.87 55.65 54.71 54.33 53.34 53.03 53.35 52.69 52.21 52.82 53.97 53.70 54.17 51.16
32.24 32.31 34.24 35.25 35.95 36.42 36.87 37.96 38.74 39.00 39.27 38.88 40.56 44.79 51.20 44.28 40.25 44.40 53.47 56.67 56.81 56.51 56.15 56.87 57.11 50.27 49.93 45.85 46.03 47.48 53.17 55.25 54.16 53.67 53.22 52.26 52.89 53.44 53.68 53.75 53.45 50.47 45.60
30.07 30.77 31.47 33.01 33.88 34.64 34.97 35.56 35.92 36.02 36.94 36.97 36.64 36.97 36.82 37.45 36.88 42.72 42.59 57.37 56.65 56.43 56.11 55.83 55.67 55.12 50.67 53.74 39.41 38.14 37.20 37.05 38.60 54.24 53.15 52.63 51.47 51.99 52.39 51.14 51.65 50.03 46.61
28.14 28.64 29.62 30.55 30.96 32.55 33.21 33.14 33.54 34.71 34.30 34.28 34.54 35.12 35.17 35.47 35.82 37.85 40.58 50.25 46.34 40.38 39.90 42.71 52.87 51.48 50.47 46.87 44.66 40.20 36.34 35.75 37.30 39.13 41.15 38.90 39.23 40.75 46.71 49.12 49.91 38.80 35.86
25.84 26.06 27.43 29.25 29.22 29.74 29.99 31.01 32.14 32.09 32.21 32.43 32.10 32.61 33.31 33.28 35.10 35.23 36.66 36.44 34.45 33.09 33.73 34.59 35.46 40.99 36.97 42.21 42.64 35.65 32.21 31.52 34.41 34.64 34.11 33.94 33.82 34.47 36.49 43.07 38.57 39.06 33.52
23.99 24.78 26.04 27.39 28.02 28.28 29.34 29.41 30.87 31.59 31.17 31.27 30.43 30.80 31.27 31.36 33.24 34.82 35.08 33.39 31.65 31.59 31.96 32.45 33.40 35.15 35.69 36.61 41.12 36.62 32.76 29.83 29.83 29.64 29.33 29.30 29.56 29.99 30.24 32.14 34.07 35.85 32.30
26.20 24.90 24.74 26.32 26.88 27.32 28.64 29.53 29.68 30.07 30.25 30.19 29.99 30.36 30.13 30.60 30.90 32.14 33.39 32.71 31.69 31.28 31.02 30.95 31.96 33.37 33.45 33.88 34.04 34.16 31.61 30.04 28.62 28.22 27.70 27.28 26.82 26.49 26.31 26.87 27.56 32.36 32.80
27.29 25.07 24.16 24.88 26.71 27.10 27.06 27.61 27.68 28.29 28.44 27.94 28.59 29.13 29.90 30.10 31.14 31.17 30.94 29.82 29.85 28.10 27.15 28.78 30.62 31.88 32.10 31.74 31.41 31.60 31.20 30.20 28.59 26.82 25.76 24.64 24.21 24.04 24.77 25.19 25.86 25.87 26.05
26.51 26.17 24.21 24.46 24.39 26.35 25.83 26.30 26.76 26.81 25.97 26.22 26.52 26.52 27.58 28.99 29.27 30.24 30.07 29.63 28.62 26.52 27.14 28.15 28.33 27.89 27.96 27.84 28.97 29.08 29.40 28.84 26.08 23.64 22.54 22.42 23.22 24.67 25.86 25.71 25.93 25.62 24.78
25.03 25.53 25.74 23.24 23.15 23.54 24.99 25.94 25.02 25.87 25.15 24.83 24.90 24.42 25.55 26.52 27.16 27.84 27.46 26.82 27.12 26.11 25.57 25.41 25.84 25.98 24.97 24.63 24.91 25.15 25.27 25.49 24.54 23.10 22.23 23.41 24.27 23.55 22.51 23.88 23.11 23.67 22.54
24.43 24.28 24.13 24.53 22.58 22.15 22.59 23.79 23.99 25.17 26.26 24.42 24.06 24.40 23.99 23.54 25.94 27.52 27.02 25.42 25.19 24.46 24.37 23.38 22.32 22.38 21.85 22.28 22.42 22.61 23.40 23.77 23.04 23.86 23.45 22.91 22.44 22.55 22.04 23.02 21.95 21.57 20.38
22.55 22.71 22.64 22.64 21.51 21.19 19.72 19.47 23.86 25.20 25.59 26.03 26.48 25.12 24.34 26.35 26.61 26.55 26.48 26.13 25.23 24.32 21.03 19.37 18.99 19.41 19.03 19.21 19.38 19.56 20.44 21.31 22.24 22.33 22.04 21.98 21.22 21.25 20.45 20.74 20.49 19.28 18.11
20.56 21.27 20.75 20.81 19.74 18.38 16.77 15.74 12.62 17.18 22.46 23.44 23.57 24.31 24.80 24.45 24.71 24.87 24.15 22.93 22.83 20.37 16.36 16.53 16.11 17.01 17.56 17.94 17.95 17.99 17.35 19.16 20.76 20.49 20.49 20.63 20.83 20.44 20.24 19.36 19.31 18.84 17.42
16.05 15.68 14.63 15.82 13.46 10.26 7.83 8.58 8.94 11.33 9.11 11.22 17.58 19.89 21.91 22.38 22.26 21.80 20.97 18.64 14.42 15.20 14.66 13.37 13.32 13.94 14.50 14.64 14.58 15.04 15.13 16.18 17.04 17.61 17.82 18.22 18.92 19.02 18.27 17.80 18.15 17.89 17.20
16.93 16.18 13.48 11.24 10.20 8.96 8.78 8.94 8.78 10.15 10.51 11.39 12.87 14.31 14.09 18.35 18.56 17.85 16.82 10.79 10.27 10.73 11.90 11.51 11.22 11.46 11.18 11.15 10.32 10.78 11.04 11.56 12.31 12.83 13.63 14.73 15.65 16.31 15.19 15.06 14.51 14.61 15.93
12.41 12.68 10.49 10.54 10.16 9.78 7.70 7.70 8.03 7.52 7.87 7.93 8.57 8.82 10.17 9.41 7.26 7.00 7.67 7.55 8.45 8.72 9.89 9.22 9.10 8.47 7.23 7.90 6.84 7.44 8.54 8.73 9.60 10.98 9.37 9.79 11.63 13.11 12.34 12.48 12.50 12.17 12.28
8.23 9.36 8.45 9.41 8.29 9.46 6.50 5.90 5.20 4.57 4.65 5.05 2.89 1.57 4.86 5.46 3.80 4.31 5.14 5.16 5.67 5.79 5.68 6.24 4.94 4.45 5.96 5.43 4.96 4.51 3.56 3.82 5.87 7.48 9.07 9.67 9.37 10.30 11.21 11.48 11.43 11.54 11.37
6.12 7.69 8.87 7.04 7.29 6.38 9.96 11.69 7.28 1.39 2.10 2.62 0.14 4.83 1.79 0.70 2.08 2.38 0.91 -1.75 0.12 4.43 4.45 2.41 1.86 1.35 1.08 0.88 1.57 0.23 -0.51 -0.69 0.59 2.21 5.61 7.10 8.97 8.98 9.15 8.05 7.66 8.46 9.75
4.96 4.42 6.94 8.42 8.18 5.31 3.51 6.71 4.09 -0.02 -1.31 -3.66 0.41 1.44 0.90 -6.18 -7.08 -3.30 -5.29 -8.55 -1.97 -3.02 -0.83 -0.59 -0.46 -0.28 -1.42 -3.01 -1.46 -0.64 -1.27 -2.67 -2.34 -2.14 0.95 4.71 6.34 6.06 5.86 5.97 6.08 6.12 5.68
2.82 0.36 4.97 3.79 3.81 5.80 0.33 -2.19 -1.46 2.51 2.14 -3.46 -7.99 -6.18 -7.26 -9.80 -12.70 -10.89 -10.35 -9.80 -7.45 -8.72 -8.73 -6.96 -2.56 -1.93 -1.14 -3.87 -3.51 -0.77 -0.40 -3.88 -2.53 -1.71 -4.11 0.74 4.00 3.82 3.53 3.21 3.56 0.57 1.48
-2.99 -3.28 -3.65 -1.83 -4.91 -5.09 -1.32 1.52 -5.09 -7.81 -5.45 -6.54 -4.00 -0.79 2.01 -6.00 -4.04 -11.80 -11.43 -8.53 -7.10 -8.01 -2.51 -3.60 -4.33 -4.67 -5.22 -5.94 -4.82 -4.01 -5.65 -7.45 -7.63 -7.11 -3.91 -2.30 -1.68 -1.93 -0.61 0.35 -0.56 1.60 -0.90
1.98 -0.90 -3.46 -5.09 -5.09 -7.81 -10.89 -10.53 -5.45 -4.91 -6.72 -8.17 -7.99 -4.91 -3.13 0.03 -0.04 -11.25 -10.17 -5.27 -6.00 -7.09 -6.91 -7.28 -5.00 -5.52 -3.96 -3.02 -2.63 -5.18 -7.22 -7.63 -8.17 -11.30 -8.85 -1.58 -1.40 -2.06 -1.71 -2.31 -2.62 -0.32 -0.72

GFSGL_sfc_wetblb_123.txt.gz
Wetbulb
39.22 40.79 42.03 42.29 43.70 45.34 46.83 47.91 51.00 60.15 62.40 62.38 63.11 63.17 63.15 62.49 61.34 60.13 59.77 60.71 59.86 59.88 59.02 58.59 58.47 59.33 58.77 58.09 58.30 58.34 57.63 57.77 54.42 55.15 56.56 57.50 57.33 57.69 57.80 57.98 58.24 58.76 58.85
38.32 39.12 39.84 40.94 41.51 42.43 43.45 44.82 46.27 49.00 61.82 61.51 61.87 62.13 62.81 62.24 60.90 59.44 59.16 59.57 58.96 58.46 57.90 58.01 57.90 59.21 58.21 57.82 57.45 57.41 58.07 58.27 55.19 52.63 54.86 55.28 56.46 57.70 57.21 56.52 56.35 58.23 59.15
37.78 37.91 38.04 38.33 39.36 39.60 41.12 42.30 43.67 44.62 47.66 58.67 60.57 60.67 60.73 60.82 60.28 59.74 59.46 59.39 58.61 58.72 58.14 57.45 57.99 59.09 57.45 57.41 57.71 57.92 58.04 56.98 55.43 53.63 52.69 54.82 55.76 56.30 55.90 56.46 58.26 58.84 58.77
36.49 36.02 36.16 37.06 37.62 38.17 39.33 40.03 40.78 42.46 43.16 44.09 46.27 57.47 59.84 60.02 59.69 59.51 59.15 58.61 58.11 58.40 58.45 57.80 58.20 59.01 58.27 58.09 57.76 57.74 57.50 56.12 55.09 54.00 53.24 52.83 54.29 55.07 55.81 54.71 54.36 57.48 55.43
33.97 34.50 34.41 35.41 36.95 37.64 37.49 38.03 38.51 39.00 40.37 41.82 41.40 41.89 42.00 44.30 39.92 40.59 55.33 58.22 57.46 57.14 56.83 57.62 59.58 57.75 51.83 55.15 57.20 57.31 57.08 55.24 54.58 53.90 53.32 53.32 53.19 52.73 52.96 55.41 54.57 54.57 50.75
32.16 32.20 33.49 34.35 34.57 35.80 36.30 36.88 36.74 36.66 36.61 37.20 37.53 38.78 38.39 38.48 36.33 37.57 40.83 56.68 56.88 56.32 56.22 57.43 59.09 51.24 50.85 46.45 46.81 48.05 54.85 56.20 54.44 54.16 53.84 52.75 53.34 53.80 54.49 54.31 53.83 52.31 46.51
29.79 30.17 30.76 32.80 32.89 33.18 33.91 34.62 35.55 35.46 34.70 33.80 33.46 35.16 34.68 34.51 35.81 36.83 38.05 49.32 56.50 56.62 56.92 57.27 57.26 56.58 52.11 56.06 44.91 40.63 39.71 40.09 42.31 57.25 54.35 54.66 53.69 54.78 54.72 53.64 54.01 53.47 50.90
28.05 28.01 29.29 30.37 30.88 32.23 32.78 32.82 33.07 33.68 33.48 32.65 32.71 32.51 32.82 32.70 33.98 35.56 36.06 38.13 36.80 36.42 36.78 38.63 44.94 53.51 53.85 54.31 47.27 44.12 40.47 39.38 40.66 43.25 50.36 52.66 50.99 52.20 54.91 54.01 52.63 39.61 37.38
26.63 26.39 27.64 29.09 29.23 30.11 30.29 30.83 32.34 33.08 33.07 32.02 31.69 31.41 30.96 31.34 32.97 33.37 35.99 36.08 34.23 32.66 33.73 34.47 35.46 37.84 35.93 39.51 46.18 40.09 34.12 32.79 35.20 35.47 35.12 34.93 34.79 35.19 40.38 47.03 40.43 41.04 34.85
26.57 26.30 27.25 28.29 28.31 28.72 30.08 30.26 31.66 32.14 32.00 33.42 32.34 32.02 31.51 30.71 32.51 32.66 31.93 33.07 32.77 32.52 32.24 31.91 32.48 33.58 34.19 35.21 41.77 39.79 35.90 32.33 31.42 31.40 31.59 30.62 30.94 30.94 31.19 33.20 43.01 43.37 34.30
29.29 27.80 27.49 28.08 28.79 29.18 29.56 30.33 30.34 30.97 31.24 30.83 30.85 31.48 30.47 30.48 30.94 31.65 30.90 28.63 28.28 28.48 27.71 28.29 30.53 32.02 32.63 33.67 33.92 34.06 32.25 31.07 29.98 29.32 28.61 27.96 27.68 26.82 27.00 28.08 29.22 33.73 33.94
28.00 28.20 27.38 27.34 27.94 28.51 28.44 29.40 29.42 28.82 28.22 28.14 28.20 28.70 29.92 30.33 29.97 30.38 30.34 29.50 28.83 26.56 26.13 27.00 28.10 29.49 30.01 29.90 30.83 31.59 31.17 31.14 29.47 27.14 25.80 24.29 24.31 24.55 25.39 25.99 26.57 26.93 28.07
26.92 26.46 27.38 27.42 27.43 27.62 26.66 26.56 27.01 27.63 26.71 26.82 26.22 26.25 26.76 28.06 28.91 29.07 29.02 28.69 28.43 27.89 28.08 27.63 28.03 27.95 27.41 26.57 27.90 27.66 27.99 27.39 26.52 24.07 22.73 22.49 23.62 25.24 26.34 26.33 27.04 27.49 26.52
25.83 25.72 26.61 26.50 26.36 26.50 26.94 26.45 25.53 26.32 25.65 24.80 24.58 24.82 26.43 27.30 27.31 27.31 27.92 29.94 27.27 27.30 26.54 26.48 26.35 26.35 26.05 25.94 26.08 26.12 25.87 25.35 24.38 23.27 22.41 23.42 24.48 23.82 22.90 24.70 23.94 25.07 23.52
25.36 25.16 24.70 25.62 25.12 24.93 25.51 24.31 24.33 24.89 24.67 24.08 24.08 24.41 24.28 24.50 25.43 26.25 26.21 26.78 26.74 25.21 26.01 25.33 24.82 24.88 24.14 23.71 23.89 24.63 25.81 25.99 25.26 25.71 24.70 24.19 23.91 23.81 23.65 25.20 24.74 24.65 23.25
23.06 23.06 23.02 23.91 23.86 23.57 23.23 23.99 23.62 23.59 24.01 23.93 24.05 24.10 24.90 24.53 25.35 25.38 24.43 24.35 23.73 23.76 23.71 21.89 21.96 22.49 22.08 22.18 22.16 22.44 23.13 23.50 24.54 24.32 24.05 23.91 23.15 22.99 22.56 22.99 23.84 23.43 22.01
21.31 21.59 22.28 22.32 21.90 20.90 21.14 20.80 20.03 22.35 21.61 21.36 21.88 21.95 23.25 23.00 23.29 23.25 22.67 21.96 21.84 22.52 21.10 20.21 19.65 20.09 20.31 21.26 21.60 21.58 20.67 21.70 22.94 22.89 23.26 22.89 22.70 22.09 21.82 21.27 21.45 21.82 21.07
20.63 18.63 20.72 20.93 20.51 20.47 20.03 19.83 19.55 18.34 17.61 18.21 19.26 19.12 19.47 20.60 20.59 20.29 20.09 20.96 19.80 19.67 19.01 18.27 18.17 18.58 18.63 18.43 18.81 20.00 20.90 21.37 20.66 21.04 21.48 21.92 22.48 21.97 21.33 20.91 21.08 20.76 20.31
19.85 20.18 20.09 20.45 20.75 18.76 20.03 19.67 19.05 18.25 17.14 16.41 16.98 16.78 16.14 17.06 17.29 17.05 17.23 16.94 16.42 16.19 16.55 16.39 16.81 16.74 16.96 17.33 18.20 18.56 18.53 18.46 19.34 19.92 20.21 20.69 21.21 20.42 19.43 19.75 19.18 19.01 19.76
18.17 16.31 16.73 19.12 19.37 19.33 19.13 18.60 17.83 17.25 16.16 15.24 14.06 13.54 15.00 15.19 13.67 13.64 14.24 14.07 14.07 13.80 14.38 14.04 13.85 14.46 14.80 15.41 16.37 17.35 18.34 17.90 18.63 19.25 18.99 19.67 20.19 20.53 18.72 18.33 19.16 18.77 18.55
17.12 17.79 14.39 18.21 17.56 17.84 18.12 17.50 17.03 16.32 15.40 14.65 13.53 11.58 8.50 12.81 11.92 11.16 11.08 11.24 11.72 11.74 11.59 11.79 11.81 11.59 12.09 12.74 13.52 14.38 14.00 15.42 15.49 16.81 18.30 18.43 18.59 17.71 18.00 17.94 17.50 17.15 17.28
15.48 15.80 16.40 15.98 16.56 15.94 15.56 16.48 15.85 15.42 14.57 13.78 13.82 12.95 8.71 12.51 11.83 10.78 10.04 9.26 9.99 10.54 10.32 9.85 8.92 7.99 7.53 8.30 9.23 11.42 11.01 11.02 11.96 14.05 15.78 15.97 17.18 17.03 16.93 16.30 16.33 15.99 15.87
14.24 13.81 14.30 14.31 14.68 13.47 14.57 14.00 14.30 15.05 14.22 13.27 12.61 12.35 12.11 11.01 10.64 10.15 9.55 8.58 8.65 8.03 8.28 8.85 8.07 6.91 6.65 6.05 7.17 7.52 7.47 7.11 7.88 8.80 12.20 15.29 15.71 16.04 16.14 15.18 14.39 13.99 13.36
12.74 12.55 12.27 12.59 12.67 12.53 12.95 12.99 12.73 11.42 11.87 12.38 12.01 11.87 11.14 10.18 9.98 9.18 8.55 9.12 8.70 8.62 7.60 6.77 5.92 4.23 4.85 5.14 5.93 6.56 6.74 6.38 7.57 8.63 8.50 13.00 13.96 13.85 14.44 13.42 12.83 11.49 11.98
12.10 11.85 11.45 10.90 10.49 10.29 10.84 11.28 11.68 11.53 11.48 11.12 11.11 11.33 11.20 10.95 10.34 9.91 9.26 8.59 7.61 8.12 7.03 6.20 5.96 4.85 3.33 1.84 1.76 2.34 1.36 0.75 2.14 1.86 9.89 10.88 10.27 10.37 10.74 11.54 11.53 11.62 10.13
11.40 11.02 10.93 10.89 10.54 10.31 10.17 9.86 10.12 10.06 9.95 10.36 10.23 9.96 9.84 9.58 9.58 9.73 9.00 8.13 7.92 7.64 5.70 6.99 5.36 3.33 3.31 4.47 3.34 1.16 -0.05 0.06 2.03 -1.46 6.46 10.72 10.41 10.25 10.55 9.16 7.79 10.96 9.24

GFSGL_sfc_wetblb_126.txt.gz
Wetbulb
40.68 41.31 42.21 43.23 44.94 44.94 45.21 44.91 45.73 47.85 51.79 56.64 63.57 64.25 64.25 63.42 63.74 64.12 63.48 63.74 62.71 62.96 62.22 62.31 61.59 62.11 61.62 62.28 60.54 60.58 59.56 58.52 56.85 60.18 60.39 61.17 59.92 58.63 57.44 59.75 59.19 59.40 57.85
39.57 39.93 39.87 40.46 40.85 41.21 41.79 42.26 43.43 44.69 46.31 48.45 52.30 62.89 62.44 62.78 63.97 63.22 62.54 62.25 61.43 60.60 60.50 60.29 60.59 61.02 61.33 61.13 59.68 59.73 60.62 58.99 59.14 55.37 58.01 57.40 57.50 58.16 57.68 57.42 57.85 58.75 58.58
39.08 38.50 37.98 38.56 38.87 38.87 39.54 39.98 40.83 41.69 42.70 44.08 45.15 45.37 49.28 59.49 61.00 61.50 61.77 61.46 60.97 60.58 60.63 60.20 60.13 60.25 59.57 59.59 59.36 60.00 59.42 58.84 60.15 58.64 56.38 56.80 57.20 57.88 56.90 57.40 56.92 56.88 57.57
37.66 38.10 37.54 37.40 37.70 38.63 39.13 38.95 38.68 38.92 38.66 39.58 41.23 40.96 41.55 40.46 39.87 41.19 45.39 57.22 60.03 59.90 60.05 60.40 60.24 60.21 59.47 58.54 58.66 60.18 59.59 59.57 58.85 58.02 55.96 54.38 55.63 56.40 56.50 54.97 54.48 56.14 55.71
35.60 36.45 37.84 38.73 37.78 37.64 37.95 38.97 39.17 38.13 37.52 37.06 37.75 37.74 37.39 38.00 36.61 37.72 40.84 46.38 55.59 59.22 59.10 59.40 59.95 58.57 53.41 55.82 58.90 60.04 59.61 58.90 57.24 56.18 53.92 53.87 53.36 53.15 53.72 55.17 54.29 54.91 55.50
34.00 34.44 36.58 38.29 39.70 38.02 37.52 37.58 37.71 37.96 37.30 37.72 36.08 35.54 34.87 35.30 34.90 36.19 38.11 47.02 50.52 57.20 57.64 57.97 58.67 52.08 51.55 47.28 46.21 48.75 56.46 58.85 56.51 55.43 54.61 53.45 53.60 53.94 54.48 54.37 54.43 52.79 48.44
32.50 32.76 33.84 36.07 36.81 38.01 38.73 37.91 37.40 35.58 36.47 35.52 35.27 35.36 34.02 33.38 33.93 34.94 36.67 40.23 38.78 38.44 38.06 39.09 49.62 57.19 51.98 57.31 46.70 44.00 45.34 45.46 47.02 56.99 56.37 56.42 55.45 57.09 55.23 53.61 53.66 53.78 52.97
30.51 30.23 31.50 33.09 33.93 35.58 35.84 35.73 36.26 36.18 35.52 34.68 34.47 33.70 34.15 32.96 32.94 33.04 34.93 37.24 36.01 35.75 34.51 34.02 35.44 38.83 37.31 38.99 55.82 52.74 51.63 45.38 44.98 46.77 52.73 57.18 57.44 59.74 57.26 57.44 54.56 50.00 38.56
28.68 28.89 30.22 31.15 31.28 31.94 32.00 32.36 34.17 34.63 33.96 34.36 33.54 32.81 32.42 32.53 32.40 32.24 33.10 33.85 32.53 32.84 32.43 32.80 32.14 33.23 33.95 35.75 44.46 48.89 40.16 34.59 35.77 36.12 35.92 35.17 35.00 35.39 40.17 52.38 43.25 43.12 37.12
29.65 29.92 30.26 30.54 30.83 30.46 31.53 32.11 32.94 33.77 33.69 33.81 33.44 32.64 31.24 31.37 31.56 32.21 32.67 31.01 29.02 29.37 30.15 30.20 31.14 31.55 32.21 33.32 39.73 42.28 40.24 34.89 32.41 32.59 32.59 32.07 32.04 31.83 31.57 34.04 44.01 45.41 37.12
30.56 31.15 30.57 31.17 30.68 30.64 31.41 32.30 32.02 32.58 32.68 31.78 31.87 32.23 31.73 30.82 30.80 30.85 30.95 30.98 31.04 29.92 27.55 27.53 29.29 30.39 30.66 31.31 31.98 32.25 32.23 31.99 30.67 30.79 29.09 28.49 28.64 27.93 28.07 29.04 30.09 33.83 34.95
30.72 30.67 30.83 30.83 30.02 30.01 29.42 30.73 31.57 31.94 31.94 31.84 31.64 32.02 32.84 31.85 29.58 29.66 29.78 29.56 29.69 30.59 29.59 30.18 29.37 29.53 29.19 29.38 28.50 29.36 29.91 30.63 30.57 28.96 26.47 25.65 26.17 26.35 26.60 27.63 28.03 28.43 29.53
30.93 30.05 30.48 30.42 31.28 31.97 29.54 29.06 28.86 29.89 29.61 29.34 29.20 28.86 30.20 32.23 32.14 28.60 29.04 29.01 29.06 30.33 30.60 29.52 28.68 28.59 28.46 28.40 28.51 27.73 26.80 26.27 25.61 23.90 23.05 23.16 24.65 26.31 27.81 27.82 28.13 28.03 27.15
29.57 29.42 30.36 29.97 29.94 30.60 30.18 28.01 25.86 25.85 25.63 25.58 25.85 25.96 27.37 28.40 29.05 30.12 30.07 30.77 29.30 30.04 30.21 31.17 29.21 28.78 28.90 28.23 28.32 28.62 28.86 26.92 24.76 23.68 23.72 24.69 25.87 25.57 25.32 26.83 26.76 26.70 24.45
28.62 28.55 28.33 29.14 29.03 29.15 29.31 27.06 25.45 24.84 23.94 22.87 23.57 24.44 23.88 23.92 24.92 26.07 26.01 26.82 27.50 28.04 30.44 31.24 30.01 29.05 28.23 28.50 28.19 27.89 28.00 27.99 26.75 27.41 26.71 25.62 25.22 25.55 25.93 28.14 27.73 26.03 24.23
26.13 26.79 26.50 27.64 27.58 27.50 27.48 27.79 24.44 23.54 22.89 22.54 22.31 22.98 24.35 23.57 23.63 24.14 24.12 24.14 25.07 26.24 27.94 26.22 25.59 26.23 25.93 26.35 25.04 25.15 25.69 25.16 25.88 26.29 26.05 25.47 25.14 25.62 26.00 26.99 27.33 26.60 25.26
24.58 24.12 25.86 25.70 25.89 25.44 25.39 24.96 23.98 25.93 24.75 23.06 21.06 20.54 21.20 21.36 21.74 22.47 23.51 24.24 23.76 25.83 25.07 24.27 23.44 23.91 24.19 24.14 25.14 25.21 23.91 24.50 25.72 25.41 25.18 25.14 24.97 24.74 25.07 24.69 25.45 25.29 24.44
23.72 22.36 24.66 25.07 25.00 24.87 24.57 24.23 23.96 23.05 22.20 22.72 22.69 20.61 19.71 19.94 20.33 20.35 21.55 24.13 23.98 23.53 23.37 22.27 22.07 22.85 23.10 23.07 23.42 23.48 23.60 24.55 24.41 24.64 24.70 24.70 24.64 24.27 23.83 23.30 23.81 23.32 22.90
22.69 22.47 23.14 24.58 24.45 23.67 24.09 23.86 23.25 22.58 21.80 21.36 21.56 20.26 19.61 19.55 19.47 19.58 19.93 20.87 19.75 19.72 20.09 19.86 20.08 20.35 20.74 21.58 21.54 23.22 23.44 23.50 23.89 24.12 24.30 24.44 24.90 23.65 21.85 21.39 21.23 21.41 21.51
22.09 19.87 20.39 23.07 23.07 22.72 22.86 22.18 21.72 21.29 20.91 20.26 19.24 16.92 17.54 19.79 18.51 17.85 18.45 17.81 17.90 17.68 17.73 17.66 17.77 17.73 18.05 19.00 20.42 20.52 21.88 22.37 23.06 23.30 23.59 23.57 24.60 24.38 23.34 22.88 23.16 22.35 21.68
21.59 21.51 18.98 21.96 21.69 21.29 21.23 20.82 20.39 20.25 19.51 18.99 18.76 16.31 13.15 17.20 16.83 16.65 15.97 15.80 15.24 15.40 15.56 16.03 15.81 15.22 16.07 16.92 17.31 18.33 18.42 19.27 19.54 20.91 21.68 22.13 22.37 22.03 22.33 22.17 21.92 21.60 22.07
20.23 20.04 20.24 19.63 20.33 19.77 18.69 19.74 19.42 19.23 18.69 17.93 17.89 17.76 15.15 17.23 16.52 16.12 15.38 14.41 14.73 15.14 15.44 15.17 15.00 14.05 13.16 12.82 13.93 15.42 16.07 15.79 16.21 17.56 19.99 20.27 21.16 21.19 21.03 20.72 20.78 20.60 20.59
19.13 18.51 18.74 18.63 18.42 17.25 18.79 18.46 18.04 17.57 17.07 17.05 16.69 16.10 15.98 15.34 15.03 14.64 14.31 14.25 14.38 13.75 13.35 13.25 12.60 11.92 12.02 12.77 13.35 13.25 12.54 12.76 14.05 14.51 16.65 18.95 19.33 20.19 20.37 19.64 18.68 18.34 17.60
18.09 17.84 17.00 17.13 16.85 16.23 16.68 16.42 16.79 15.57 15.50 15.70 15.51 15.38 15.22 14.54 14.45 13.78 13.71 13.48 13.43 13.52 12.84 12.13 11.40 9.06 8.51 9.13 11.05 11.74 10.38 9.84 12.58 14.07 14.90 16.93 17.71 18.08 18.39 17.64 16.97 15.83 16.06
17.77 17.09 16.36 15.99 15.61 15.41 15.31 15.43 15.21 15.12 15.00 14.60 14.61 14.22 14.25 14.19 13.95 13.85 13.59 12.90 11.92 12.07 11.80 11.36 10.19 9.68 8.57 7.09 6.66 5.78 4.58 5.13 7.50 6.77 15.11 15.61 14.30 14.13 15.15 15.98 15.90 15.63 14.52
17.20 16.56 16.19 16.05 15.30 14.97 14.57 13.98 13.94 14.02 13.53 13.78 13.66 13.67 13.55 13.16 13.30 12.98 12.89 12.32 11.18 11.23 11.30 11.59 10.55 8.20 7.94 9.57 6.67 4.02 3.05 3.37 5.43 6.10 11.09 14.91 14.22 14.66 15.44 13.57 9.81 15.72 13.19

GFSGL_sfc_wetblb_129.txt.gz
Wetbulb
41.32 42.25 42.37 42.16 44.01 44.33 43.68 43.61 44.98 46.37 47.12 48.30 50.31 51.16 62.23 64.69 65.21 64.02 63.39 63.55 62.91 64.07 64.32 63.85 64.47 66.52 64.55 65.33 64.86 64.79 63.14 62.55 58.57 60.63 61.46 61.97 62.06 62.83 61.80 61.09 60.85 60.04 57.45
40.17 40.12 39.51 41.38 41.83 41.60 41.33 41.21 42.02 41.88 43.19 43.21 43.06 43.84 43.74 43.69 43.69 46.67 58.77 62.82 62.54 62.51 62.70 62.13 62.21 62.62 63.44 62.86 62.42 61.63 62.32 62.00 59.59 56.34 60.04 59.83 61.47 62.22 61.99 58.99 59.40 59.74 59.38
40.01 41.22 40.54 40.41 39.64 40.28 40.92 40.29 40.80 40.13 40.38 40.57 39.78 39.20 39.53 38.94 39.11 40.64 43.21 46.69 58.12 61.24 61.55 61.18 61.11 60.98 60.82 61.12 60.84 60.07 60.30 60.91 59.61 57.79 59.19 59.39 59.62 61.08 59.32 58.30 58.10 58.56 58.94
36.98 38.98 40.16 40.90 40.62 40.17 39.89 40.20 39.93 39.78 38.95 38.55 38.11 37.39 37.69 36.33 36.69 38.25 40.62 43.32 47.01 52.16 60.56 61.44 61.11 60.72 60.28 60.36 60.21 59.78 59.65 59.16 58.18 57.39 59.46 57.61 58.10 57.82 57.82 55.41 54.73 56.62 56.07
34.53 35.48 37.15 39.16 39.28 39.09 38.90 38.60 38.49 37.78 37.12 37.12 37.48 36.01 35.21 35.18 35.21 36.19 40.16 45.69 47.44 48.31 47.17 55.18 60.00 58.23 52.71 54.91 60.10 59.75 59.29 58.35 57.22 57.42 58.73 56.47 55.62 54.53 54.51 55.60 54.73 55.20 55.78
33.26 34.11 36.24 37.38 38.38 38.19 38.27 38.45 38.01 37.50 36.29 36.89 35.76 36.08 33.41 33.72 33.78 35.03 38.57 39.30 38.23 37.00 37.30 38.34 42.56 47.06 40.43 44.76 46.64 47.01 55.89 58.91 57.03 57.44 57.50 54.96 55.24 55.32 55.62 55.18 54.42 52.81 50.91
32.28 33.56 34.77 35.77 35.84 36.09 36.49 37.06 36.91 36.72 36.67 35.85 35.47 35.91 34.40 32.82 33.21 34.34 35.22 36.93 35.29 34.57 34.15 33.90 35.68 37.94 37.50 38.06 39.67 42.97 44.42 43.38 45.48 58.21 57.04 56.27 55.92 56.33 55.81 54.86 54.22 53.48 52.75
31.52 31.48 32.76 33.45 33.58 34.21 33.90 34.50 35.47 35.21 35.01 34.36 33.82 33.65 33.95 32.58 31.99 32.63 34.78 35.28 33.58 32.99 32.24 32.01 31.98 33.77 33.86 34.43 38.50 42.36 53.17 52.99 48.40 49.79 55.76 57.53 58.06 58.04 57.01 57.03 56.27 53.13 39.79
30.75 30.65 31.18 31.48 31.25 32.21 31.51 32.35 33.50 33.78 33.77 32.90 32.79 32.50 31.75 31.99 31.65 31.58 34.29 35.67 34.91 31.77 30.87 30.71 31.08 31.00 31.97 33.48 37.83 39.41 45.00 36.13 35.89 36.84 36.83 35.70 35.27 35.63 38.85 55.95 50.73 44.16 34.84
31.71 31.73 31.98 31.61 30.88 31.06 31.84 32.39 33.44 34.00 33.68 33.84 33.86 33.81 31.76 31.75 30.89 31.17 32.01 32.31 31.14 32.12 32.12 30.81 30.24 30.36 30.84 31.53 31.86 33.87 34.94 32.05 32.67 33.00 32.41 32.25 31.76 32.47 32.03 33.02 48.09 48.02 35.95
33.02 33.44 32.33 32.80 32.24 31.82 31.46 32.84 32.77 33.77 33.41 32.64 32.87 33.23 32.60 31.34 30.65 30.13 30.32 30.04 30.32 30.77 30.37 29.92 30.79 30.77 30.36 30.11 29.87 29.15 29.61 31.93 31.76 31.57 31.60 29.94 29.46 28.91 28.73 29.92 30.50 33.21 36.13
32.68 32.41 32.45 33.40 32.34 32.59 31.13 31.24 31.24 31.45 30.93 30.37 30.48 31.13 32.18 31.19 29.45 29.08 29.21 29.33 29.70 30.39 29.90 30.51 30.71 30.60 30.33 29.63 29.75 29.00 28.38 28.11 28.02 27.14 27.15 25.56 25.71 26.25 27.68 27.87 28.51 29.63 31.14
32.07 31.21 31.82 31.56 32.76 33.39 31.16 30.37 28.22 28.97 28.73 27.95 27.79 27.65 28.54 29.74 28.90 27.71 27.82 28.18 28.85 30.14 31.44 31.22 30.71 30.69 30.59 30.30 29.79 29.71 29.72 27.84 25.77 24.01 23.49 23.95 25.32 27.15 27.72 28.59 28.98 29.51 28.54
31.14 30.56 31.26 30.93 30.91 31.88 31.15 29.93 27.10 24.80 24.45 24.49 23.81 24.33 25.34 25.54 25.02 26.39 27.79 28.64 28.08 29.79 30.56 31.48 30.59 29.97 30.27 30.21 30.22 30.25 30.21 29.17 29.02 27.55 26.19 26.80 27.50 27.44 27.28 28.16 27.07 26.89 25.18
29.48 29.89 28.80 30.07 30.14 29.96 30.08 28.57 27.67 25.20 23.45 22.03 21.56 22.91 22.82 22.17 22.61 24.05 25.16 27.14 27.26 28.30 29.67 30.16 29.33 29.16 28.40 28.65 29.13 28.94 29.28 29.58 29.13 28.91 27.65 27.39 27.58 27.89 27.17 29.22 27.76 25.59 23.04
27.55 27.15 27.98 28.61 28.82 28.64 28.43 28.52 26.17 25.36 24.35 23.81 22.65 21.99 22.42 22.24 22.70 23.24 24.08 25.90 26.03 27.02 28.08 26.20 25.50 26.37 26.37 26.64 26.59 26.60 27.73 27.18 27.57 27.84 27.56 26.74 26.07 26.44 26.78 27.71 27.85 27.04 25.39
25.60 24.93 27.05 27.19 26.85 26.29 26.42 26.10 24.77 27.83 27.57 25.61 23.66 22.71 21.86 21.74 21.99 22.15 22.69 24.93 25.78 25.53 24.23 23.74 23.54 24.18 24.59 23.93 24.56 24.87 24.77 26.56 28.10 27.04 26.27 25.84 26.46 26.19 25.79 25.54 26.22 25.87 24.98
24.56 23.40 25.01 26.39 26.43 25.83 25.68 25.52 25.43 24.23 23.51 24.60 25.29 22.75 20.85 21.71 22.18 21.77 21.71 23.07 22.27 22.35 21.65 20.61 20.44 21.26 21.51 21.76 21.68 23.00 24.12 25.19 25.74 26.56 26.59 26.02 25.38 24.03 23.19 22.97 23.61 23.95 23.42
24.54 23.97 23.44 25.82 26.05 25.05 25.37 25.18 24.69 23.99 23.29 23.14 23.87 22.92 20.37 20.10 22.35 21.71 21.10 19.26 18.15 18.20 18.36 18.65 19.23 18.57 18.84 19.68 21.23 22.06 23.62 23.80 24.74 24.88 24.75 25.51 26.11 25.10 22.95 22.91 22.83 22.77 22.84
24.44 22.96 22.28 24.08 24.60 24.19 24.06 23.42 23.04 22.52 22.39 21.68 21.20 20.02 19.08 18.98 19.95 19.80 19.56 18.26 17.29 17.02 16.96 17.13 17.68 17.00 16.56 17.42 19.09 20.27 20.60 21.00 21.95 22.84 23.76 24.02 24.99 24.62 23.52 22.94 22.91 22.02 21.24
23.92 23.72 21.90 23.53 23.06 23.25 22.75 21.58 21.75 21.24 20.71 20.33 20.36 19.77 16.10 17.53 17.74 17.64 17.20 16.28 15.54 15.28 15.35 15.53 16.27 16.56 15.80 15.55 15.88 17.01 17.91 18.21 17.98 19.53 21.48 22.47 23.09 22.11 23.05 23.00 22.72 22.46 22.43
22.71 22.39 22.42 21.88 22.04 21.54 20.50 21.43 21.07 20.23 19.59 19.03 19.10 19.45 17.91 18.81 17.21 16.56 16.20 16.10 16.34 15.73 15.49 14.72 14.16 14.18 13.68 14.01 14.02 14.34 14.80 14.63 15.32 15.69 18.09 20.65 21.72 21.94 21.78 21.05 21.38 21.59 21.50
22.03 21.28 21.30 21.19 20.72 19.02 19.87 19.88 19.24 19.11 18.50 18.10 17.88 17.38 17.62 17.78 16.84 16.11 16.01 15.97 15.41 15.60 15.13 14.04 13.64 11.91 11.84 12.22 13.34 13.16 11.50 10.80 12.38 14.95 15.33 18.42 19.41 19.42 20.62 19.68 19.05 17.95 17.60
21.40 20.57 19.88 19.80 19.86 18.56 18.84 17.91 18.25 17.48 17.20 17.11 17.22 17.12 16.47 16.69 16.33 16.40 16.38 15.69 14.83 14.98 15.13 13.46 12.65 11.60 10.78 10.27 10.76 10.22 9.17 8.87 10.78 11.61 12.65 16.62 16.95 17.51 18.96 18.35 17.26 16.95 16.99
20.70 19.80 19.55 18.71 18.05 17.65 17.29 17.21 16.80 16.77 16.66 16.25 16.13 16.18 15.74 15.65 15.44 15.64 15.89 15.36 14.08 13.74 13.60 13.70 13.16 11.20 9.98 10.13 7.71 6.46 4.99 4.92 7.30 7.72 11.63 15.94 15.52 15.76 15.22 16.38 16.15 16.28 15.28
19.94 19.31 18.77 18.42 17.73 17.53 16.91 16.13 15.82 15.96 15.58 15.84 15.34 15.40 15.44 15.31 14.87 14.58 14.22 14.17 13.59 12.02 12.73 13.32 13.27 11.27 10.84 11.74 7.73 6.19 3.86 3.86 4.67 5.44 10.25 15.26 14.24 14.34 14.29 14.65 14.02 15.74 14.35

GFSGL_sfc_wetblb_132.txt.gz
Wetbulb
41.25 42.38 41.48 41.39 41.60 42.21 42.02 41.47 42.20 41.97 42.01 42.17 42.75 42.41 43.05 43.37 43.23 45.96 48.64 58.46 62.42 63.37 63.96 63.98 63.40 63.37 62.77 62.45 62.38 62.26 61.14 60.42 57.46 58.95 59.86 59.64 59.20 59.41 59.40 59.78 59.93 60.39 57.53
40.43 40.54 40.28 39.60 40.55 40.46 40.51 40.24 40.76 40.17 40.44 39.80 39.57 39.47 38.93 39.33 40.49 40.95 42.72 45.23 48.55 52.72 62.26 62.21 62.53 62.93 62.99 62.65 61.93 61.30 61.04 60.84 59.75 57.59 58.82 57.52 57.69 58.85 60.85 58.94 59.29 59.95 60.30
37.20 38.81 39.71 39.55 39.06 38.60 38.87 38.76 38.84 39.11 38.76 37.76 37.22 36.94 36.46 36.92 37.79 39.82 42.59 45.04 46.85 49.51 50.87 47.85 58.19 61.65 60.97 61.28 61.40 61.06 61.47 61.37 60.66 59.57 58.31 58.46 58.49 58.57 58.14 57.37 57.63 58.82 59.41
35.40 36.13 36.35 37.18 38.31 38.56 38.34 37.74 37.81 37.86 37.41 37.47 36.38 35.28 35.66 35.18 35.84 37.89 41.00 40.29 40.13 40.75 41.86 42.40 44.47 42.07 39.86 46.90 58.22 60.19 60.39 60.13 59.66 58.62 58.11 57.71 57.28 56.94 57.84 56.81 54.88 57.31 56.65
32.82 33.84 34.85 35.86 36.80 37.58 37.15 37.20 36.95 36.27 36.05 36.17 36.42 33.94 33.46 33.68 33.99 35.25 38.45 37.13 37.38 37.37 37.34 38.11 41.48 39.45 38.36 37.55 39.77 41.56 52.00 59.31 58.86 57.97 57.11 56.58 56.01 54.68 55.33 55.93 54.91 54.73 55.93
32.03 32.06 33.63 34.49 34.65 35.20 35.63 35.17 35.76 34.86 34.29 34.00 33.70 33.78 31.43 32.34 33.23 34.90 35.96 35.63 34.79 33.97 33.78 34.28 36.38 35.72 35.05 35.24 36.30 37.20 38.68 43.63 53.71 56.78 56.34 55.51 56.18 55.88 55.55 55.03 54.00 52.95 51.02
31.17 31.30 31.95 32.83 32.61 33.00 33.97 33.54 33.06 33.25 33.39 32.62 31.93 32.31 30.99 30.46 32.47 33.69 35.30 36.03 33.69 32.35 31.42 31.34 31.96 33.17 32.89 33.65 35.12 38.49 40.74 40.77 38.33 47.46 53.89 56.80 56.61 56.67 55.73 54.39 54.15 53.85 52.97
30.64 30.41 30.79 31.22 31.21 32.21 32.47 32.83 32.86 32.54 32.31 32.06 31.16 30.94 30.72 30.20 31.29 31.64 32.96 33.41 33.55 33.02 31.90 31.29 30.43 30.73 31.38 31.81 33.78 35.31 37.96 36.83 36.13 36.53 36.56 39.28 43.12 53.80 56.13 55.63 55.30 53.86 42.44
29.71 30.48 30.92 30.28 29.80 30.36 29.85 31.07 32.28 31.78 31.66 31.72 31.74 30.07 28.62 28.36 30.14 30.32 30.30 29.73 30.36 30.72 30.98 31.17 30.44 30.02 31.31 32.25 30.51 30.11 31.43 33.70 35.37 35.76 35.11 34.64 33.99 34.14 34.15 48.74 52.39 45.79 34.90
30.43 30.30 31.70 31.12 29.68 28.69 29.28 29.09 30.69 30.48 29.69 30.57 29.87 30.13 29.23 27.23 29.20 29.75 29.28 28.24 27.44 28.67 29.97 30.09 30.78 30.29 30.49 30.69 29.26 28.20 26.31 27.44 30.37 32.04 33.06 33.15 32.74 32.21 31.36 32.26 32.23 48.13 42.13
32.03 31.60 31.30 31.85 30.32 29.40 28.85 28.72 28.21 28.63 28.06 26.77 27.00 27.88 26.76 25.99 26.02 28.39 28.90 26.50 26.95 27.97 28.58 28.87 29.72 30.85 30.61 30.78 30.10 28.91 28.27 27.97 27.38 27.77 28.11 28.35 29.88 30.22 29.93 29.95 31.20 31.50 33.42
31.00 31.24 29.98 31.22 31.42 30.54 27.71 26.71 25.82 25.67 25.01 23.56 23.83 24.21 25.43 24.14 25.60 26.12 27.76 27.99 27.80 27.24 27.61 29.62 29.79 30.77 31.26 30.92 29.17 30.22 30.21 28.34 27.68 26.35 25.74 25.31 25.61 26.57 27.84 29.05 29.55 29.49 30.89
30.38 28.77 29.83 29.26 30.25 29.73 28.36 26.00 23.81 23.46 22.42 21.21 20.87 20.58 21.28 22.43 22.17 24.77 25.59 27.28 27.05 26.37 28.35 29.97 29.99 30.40 30.03 29.24 29.96 29.25 27.64 27.72 26.87 25.55 25.69 25.84 26.61 27.76 29.01 28.92 29.33 29.22 28.70
28.64 28.45 28.75 28.03 28.29 28.77 28.00 27.11 23.65 21.97 20.81 20.31 19.32 18.24 18.36 19.31 19.82 21.35 22.45 24.42 26.52 25.27 27.37 28.02 27.39 27.63 27.04 25.67 26.65 27.06 26.19 26.16 26.42 25.95 25.11 26.53 28.71 28.52 27.93 28.44 26.08 26.94 24.91
26.86 27.66 26.70 27.94 27.15 26.79 26.02 25.52 25.13 22.21 22.17 20.41 19.42 18.77 17.87 17.40 19.65 22.68 22.49 23.12 24.95 23.45 25.30 24.29 22.90 23.04 23.49 23.34 23.89 24.14 25.23 25.09 24.46 25.28 25.59 25.36 26.03 26.46 27.04 28.20 27.33 25.43 23.21
24.96 24.15 25.84 26.27 26.01 25.77 25.26 25.22 26.85 25.40 25.07 24.43 23.93 20.60 19.40 22.13 23.95 23.91 23.69 24.52 25.19 24.27 21.38 18.96 18.43 18.72 19.11 20.31 20.06 21.91 23.11 23.00 24.86 25.42 24.45 24.34 24.45 24.31 25.26 26.76 26.81 25.60 24.73
23.36 22.17 24.41 25.21 24.91 23.91 24.07 23.53 21.90 25.15 27.99 27.68 24.76 23.02 22.52 21.72 23.66 23.56 22.78 22.55 22.97 21.41 17.05 17.79 16.92 16.83 17.12 18.07 18.82 19.32 20.84 22.65 24.60 24.18 24.79 24.00 23.42 23.19 22.79 23.24 24.38 23.91 23.04
24.00 21.23 22.29 24.18 24.32 23.44 23.29 23.07 22.86 21.32 20.22 20.82 24.43 23.25 21.86 21.49 22.99 23.06 21.94 19.50 15.73 17.29 15.62 15.28 14.44 14.53 15.38 16.17 17.33 18.13 19.35 20.09 21.12 23.25 22.88 23.79 24.55 22.96 22.13 21.89 22.23 21.87 21.42
23.86 22.46 21.97 22.96 23.53 22.58 22.91 22.31 21.87 21.03 20.23 20.21 20.44 19.61 17.39 20.30 21.51 21.46 20.63 14.51 12.70 12.89 13.86 13.96 14.74 14.18 13.24 13.97 14.41 16.07 17.68 17.52 17.95 18.37 21.61 21.70 22.75 23.31 22.18 22.35 22.22 21.46 21.08
23.48 20.57 19.62 22.28 22.43 21.73 21.57 20.21 19.98 19.52 18.90 18.63 18.25 17.12 16.14 15.46 15.25 14.65 15.19 13.26 12.29 12.39 12.26 12.66 13.13 13.87 12.31 12.02 11.99 12.93 14.64 14.89 14.90 15.32 16.04 20.38 21.35 21.59 21.30 20.90 21.14 21.09 20.54
22.61 22.28 17.92 21.56 21.18 20.65 19.38 18.27 19.26 18.53 17.67 17.31 16.90 16.98 15.66 14.48 15.34 13.92 13.87 13.20 11.91 12.84 11.44 11.46 11.84 10.37 9.98 9.58 11.10 10.62 11.55 11.43 12.11 13.07 14.04 15.43 19.65 19.90 20.27 20.05 20.46 20.26 20.83
21.84 21.12 20.76 20.33 20.24 19.33 17.63 18.75 18.09 17.22 16.97 16.06 16.14 16.68 13.24 15.82 15.77 14.28 13.83 11.11 9.22 12.22 13.71 10.20 10.71 10.08 9.18 7.75 9.36 8.14 7.28 6.79 7.12 9.02 10.29 11.86 17.36 18.15 19.81 18.48 17.86 17.33 17.09
21.03 20.15 19.77 19.24 19.10 17.07 17.42 17.90 16.78 16.53 15.80 15.41 15.39 15.20 15.25 14.25 13.25 13.69 14.49 12.83 10.33 9.12 13.09 10.12 6.44 8.86 7.98 5.70 8.15 6.70 4.70 3.63 4.52 7.42 7.13 7.01 14.13 14.42 16.98 16.39 16.08 14.59 14.58
19.93 19.78 18.84 18.44 18.12 16.94 16.98 15.88 16.00 14.31 14.84 14.80 14.45 14.52 14.67 14.15 12.94 11.56 12.77 13.68 9.51 7.96 10.08 8.77 10.31 5.96 5.29 5.08 2.47 2.92 4.12 3.77 3.57 5.14 4.10 7.42 11.35 13.47 13.27 14.46 15.68 13.47 14.45
20.16 19.31 18.52 17.58 16.99 16.53 16.11 15.91 15.28 14.92 14.86 14.41 14.22 13.89 13.98 14.05 13.23 11.36 12.92 12.42 11.83 10.42 5.49 8.82 11.86 9.32 4.29 5.32 1.17 -0.19 -3.22 -0.38 1.12 2.55 3.83 6.34 11.63 12.07 10.47 10.03 10.45 11.78 9.30
18.89 18.91 18.25 18.18 17.58 17.21 16.72 15.72 15.24 14.77 13.79 13.80 13.48 13.16 13.76 13.75 12.98 13.12 11.47 7.23 9.80 4.99 6.91 8.80 8.78 8.96 7.93 6.69 2.24 0.20 -3.18 -1.96 -1.58 -0.63 1.48 9.72 10.02 7.12 8.53 10.03 9.39 11.66 9.96

GFSGL_sfc_wetblb_135.txt.gz
Wetbulb
33.37 35.71 37.52 40.14 41.03 41.23 40.38 39.15 39.17 39.20 39.62 39.49 39.62 39.52 39.99 41.45 44.49 46.09 46.86 47.77 49.27 50.67 51.09 49.75 55.82 59.97 62.67 62.49 62.16 61.67 60.91 59.97 57.09 58.14 58.93 59.69 58.63 60.24 60.81 60.29 59.71 58.89 57.22
32.65 34.09 35.33 39.10 37.84 37.96 37.47 38.41 38.25 37.21 37.22 37.27 37.17 37.05 37.57 38.51 41.72 42.48 42.24 42.63 42.80 42.73 43.73 46.08 44.54 45.17 43.34 48.71 58.40 60.55 60.44 60.81 59.64 57.41 58.14 58.34 58.39 59.24 60.06 59.39 59.39 60.08 59.51
32.99 32.95 34.15 35.63 36.19 35.51 35.47 35.96 36.59 36.73 34.95 34.38 35.08 34.94 35.37 36.22 37.81 39.11 39.25 39.63 39.54 39.06 39.44 41.49 39.83 39.36 38.30 39.50 42.56 44.86 53.94 59.62 59.07 57.12 55.99 59.42 58.96 58.36 56.74 57.37 58.31 58.85 59.04
32.33 33.01 32.44 33.88 34.54 35.07 34.84 34.45 34.32 34.99 34.22 32.89 32.57 33.53 33.82 34.23 36.26 37.09 36.61 36.48 36.07 36.78 36.72 38.20 37.12 35.80 35.55 36.57 38.79 40.87 42.77 45.33 56.26 58.74 58.69 59.25 57.93 58.42 58.70 56.91 57.12 58.24 57.94
31.25 31.61 32.29 33.46 34.37 33.94 33.95 33.87 33.39 32.94 33.04 32.46 31.14 31.52 32.21 32.76 34.28 36.06 35.66 34.50 34.07 33.46 34.04 33.93 35.52 35.08 34.79 34.84 35.62 36.40 39.42 41.95 46.00 49.11 55.87 57.65 57.37 54.66 56.48 57.63 57.25 56.98 57.02
30.07 30.46 31.82 32.45 33.18 33.46 33.31 33.13 32.74 31.73 31.34 31.27 30.10 29.45 29.71 30.75 32.83 33.87 34.35 33.70 33.55 31.94 31.73 31.87 33.52 33.31 32.98 33.68 34.59 35.21 37.45 37.04 38.49 42.92 47.33 49.19 54.16 56.52 56.87 56.93 56.04 54.63 52.08
30.58 29.70 30.05 30.96 30.59 31.82 31.92 31.81 31.56 31.15 29.89 28.97 28.35 28.32 28.10 29.20 31.20 31.90 32.37 32.68 31.95 31.30 30.60 30.91 31.32 32.01 31.88 32.20 32.47 33.55 34.41 35.12 31.97 35.88 35.82 38.45 37.54 38.22 36.94 51.05 56.06 55.30 54.27
30.10 29.51 29.16 29.42 29.09 29.68 29.94 29.39 29.27 30.18 29.53 27.70 26.74 25.92 26.38 28.20 30.21 30.00 30.27 30.22 30.67 30.86 30.47 30.40 30.24 30.29 30.62 31.05 30.82 30.78 31.06 31.63 31.94 33.49 35.05 34.93 34.92 35.32 36.44 39.08 40.29 55.34 47.76
28.79 29.61 28.82 27.95 26.99 26.76 26.59 27.78 27.73 27.00 27.11 26.97 25.72 24.40 23.42 25.43 29.38 29.75 27.52 27.50 27.89 28.92 30.42 30.01 29.93 29.98 31.04 31.56 28.99 28.83 28.78 28.84 30.55 31.26 32.28 32.44 33.03 33.82 34.09 36.90 39.17 44.01 38.97
28.18 28.63 30.01 28.74 26.87 25.16 24.90 25.28 26.43 25.10 24.88 25.14 25.04 23.45 24.05 22.27 27.14 28.44 27.78 26.02 25.39 27.02 28.74 29.03 30.23 30.28 30.71 30.84 27.99 27.78 26.03 27.18 27.04 26.60 27.16 28.76 30.42 30.60 31.39 31.49 32.06 32.68 35.54
29.59 28.68 29.36 29.22 26.72 25.66 24.58 24.36 23.87 23.14 21.87 20.95 20.22 21.07 20.29 21.36 22.12 26.40 27.53 24.83 24.75 24.88 25.85 27.25 27.82 29.96 30.07 29.66 29.37 26.90 26.75 27.23 26.56 26.25 26.10 26.34 27.31 28.77 29.44 30.05 29.84 29.95 31.48
27.41 27.84 26.85 27.58 28.25 26.91 23.71 23.29 22.27 21.12 19.32 18.32 17.57 17.52 19.02 19.13 23.77 24.53 25.77 26.93 26.29 21.84 23.80 26.93 26.37 28.57 28.33 27.89 27.12 27.87 27.70 26.27 26.11 25.06 24.64 24.60 25.78 26.88 27.99 29.16 29.77 29.73 29.26
26.55 25.49 26.01 26.62 26.62 26.56 24.22 21.97 20.97 20.52 19.06 18.19 17.45 16.40 16.95 19.47 20.19 24.06 24.50 25.73 25.62 21.61 24.65 25.09 25.23 25.70 25.89 24.05 25.64 26.13 24.01 24.06 24.40 23.23 22.76 23.63 25.02 26.54 27.25 27.98 28.72 29.29 28.96
24.86 24.66 25.62 24.61 24.46 24.14 24.28 22.19 19.79 18.00 18.06 17.96 16.74 14.91 15.07 17.63 19.44 20.73 20.78 21.43 23.80 21.54 20.34 19.72 18.14 21.51 19.03 18.69 19.91 21.42 22.30 22.15 22.79 23.22 22.98 22.80 24.14 24.11 24.78 27.03 26.09 25.40 25.43
22.79 23.66 23.97 24.26 23.30 22.93 22.86 21.60 21.66 15.99 20.36 16.97 12.51 11.78 12.39 14.11 19.72 22.89 21.63 19.84 20.76 19.51 17.73 16.98 15.72 15.35 15.11 16.12 16.90 17.70 19.93 20.46 20.42 22.56 22.80 21.74 21.32 21.72 21.77 24.88 24.84 23.92 22.05
21.05 20.65 22.39 22.40 21.70 22.21 21.68 21.86 26.33 24.38 25.76 24.72 23.88 20.27 13.20 21.95 23.98 23.99 22.67 21.29 21.58 20.15 14.17 13.13 11.56 11.24 11.93 13.40 13.92 15.14 16.75 17.85 18.70 20.39 21.29 21.70 21.87 21.32 21.34 22.23 23.55 22.59 20.92
19.77 20.37 20.59 22.19 21.83 21.20 20.98 20.46 16.11 19.26 24.88 25.67 24.92 23.28 22.50 22.24 22.83 22.82 21.75 19.40 19.05 17.01 11.62 11.66 11.75 9.03 10.12 11.60 12.13 13.27 14.03 15.94 17.41 16.42 18.59 20.40 21.48 22.68 22.08 21.42 21.50 21.50 20.39
16.92 16.73 13.82 13.41 11.01 12.82 10.88 14.00 12.39 9.15 8.89 11.15 19.28 20.53 20.99 21.35 21.39 20.93 20.04 16.57 11.35 12.67 11.16 10.06 10.20 11.27 10.89 10.62 10.89 11.52 12.23 14.17 13.83 14.61 14.61 16.04 19.94 20.99 21.24 20.58 20.93 19.79 20.06
18.77 13.49 11.59 12.20 11.65 13.50 14.42 13.39 12.89 10.94 8.57 7.70 9.48 12.38 11.73 19.52 20.13 19.31 18.29 5.47 3.92 8.94 10.29 9.79 9.79 10.08 8.46 8.59 8.55 8.86 9.35 10.23 10.66 11.19 12.15 13.31 14.73 19.84 19.50 20.68 20.37 20.70 20.31
17.33 15.75 14.27 14.32 12.76 12.37 10.85 9.58 12.11 9.63 9.69 8.33 8.12 5.60 8.15 8.90 3.14 -0.11 -1.16 -3.07 -2.01 3.89 7.51 9.38 9.53 9.19 5.67 5.45 6.77 6.78 6.84 5.92 5.67 7.65 8.56 9.99 10.53 16.88 18.81 18.78 18.94 17.90 19.88
12.56 11.81 12.33 14.01 10.84 9.77 8.38 8.95 11.30 6.98 5.75 5.04 3.56 1.80 6.64 5.56 3.24 2.05 3.86 6.25 2.29 2.63 2.19 7.05 2.93 3.42 0.99 1.02 6.43 3.80 3.41 0.96 2.29 2.92 5.37 6.86 7.61 13.32 16.13 18.38 17.29 17.42 17.16
10.99 11.33 12.45 10.18 10.94 8.16 7.53 8.95 6.26 5.00 5.38 5.35 4.11 8.49 7.13 2.58 4.55 4.54 4.40 5.22 3.73 2.02 2.11 1.90 1.16 3.00 1.84 0.43 1.23 -7.60 -0.36 -1.84 -0.60 0.01 1.74 3.74 5.88 11.37 14.09 16.15 16.38 15.70 16.17
9.46 10.23 10.74 11.32 10.32 8.20 5.28 6.45 4.98 3.08 4.10 2.87 5.54 6.95 5.42 1.21 -0.04 2.77 1.54 2.17 7.45 1.50 1.72 2.23 -2.89 4.03 1.29 -4.88 -4.53 -3.14 -5.07 -2.72 -0.60 -0.33 0.17 0.91 4.40 7.59 12.27 12.89 13.77 13.31 13.72
10.52 9.36 11.25 9.25 6.02 7.10 2.37 0.77 1.72 5.81 5.51 2.35 -1.15 0.27 0.61 0.06 -2.16 -1.10 -1.31 -1.45 -1.11 -0.18 -1.83 -4.42 1.05 8.64 5.27 -4.16 -6.21 -4.22 -1.44 -5.45 -3.44 -1.91 -1.02 1.15 3.55 9.04 9.11 10.39 11.36 11.66 11.87
6.27 5.36 5.34 6.54 5.20 2.71 0.47 1.72 0.63 -0.64 -0.45 -0.29 0.23 -0.78 2.00 -0.31 2.39 -0.23 -2.54 -0.89 -1.45 -2.90 -2.67 -3.20 -0.63 3.56 4.12 0.35 -1.28 -2.17 -8.02 -4.90 -7.38 -7.12 -1.81 1.05 6.64 5.63 7.59 8.51 9.65 11.06 7.37
10.36 11.27 8.93 5.25 4.73 2.42 1.21 0.54 2.75 2.94 4.86 6.04 5.28 3.74 3.56 3.40 3.38 -2.40 0.82 -0.67 -0.20 0.98 -2.57 -2.54 -1.63 -2.17 2.40 2.85 2.57 -2.75 -7.25 -5.99 -6.33 -4.91 -2.29 -1.84 2.64 3.00 5.18 5.17 6.99 9.05 8.18

GFSGL_sfc_wetblb_138.txt.gz
Wetbulb
33.02 33.56 34.09 33.88 34.88 35.97 37.46 36.82 37.71 39.02 38.31 37.97 38.93 40.14 41.08 40.81 42.36 43.21 43.74 43.71 43.80 44.57 43.63 42.93 42.70 43.74 44.44 44.79 47.58 51.30 58.40 59.79 57.87 58.46 59.72 59.52 58.56 59.30 59.86 59.61 61.02 60.22 59.44
32.05 32.36 32.70 32.76 32.61 33.31 34.03 35.25 35.84 35.19 35.58 35.65 36.49 36.94 38.11 38.25 38.32 38.16 38.87 39.20 39.41 40.40 39.39 38.39 38.60 39.84 38.50 40.06 43.03 43.68 45.59 47.51 49.77 56.42 58.61 58.55 58.39 59.77 59.84 60.39 60.01 60.99 60.21
32.22 32.16 32.22 32.67 32.40 32.07 32.33 33.55 32.79 32.51 32.53 33.18 34.17 34.46 34.84 36.39 35.62 35.35 34.99 35.42 34.57 35.69 35.83 34.96 34.77 35.10 34.89 35.63 38.71 39.11 41.73 43.63 47.37 47.89 53.57 57.33 57.88 58.53 58.32 59.40 59.82 59.89 59.93
31.57 31.60 31.68 31.87 32.60 33.05 32.01 31.58 31.56 31.18 30.69 30.95 31.47 32.64 33.23 33.80 35.28 34.93 34.16 33.46 33.63 33.21 34.39 34.17 33.57 33.44 33.22 33.80 35.68 36.11 39.36 40.30 42.63 44.80 47.47 50.46 56.04 58.63 58.51 57.89 56.90 58.64 58.80
29.94 30.24 30.81 32.18 31.95 32.19 31.68 30.25 29.65 29.28 29.29 29.54 29.48 29.87 30.98 31.61 32.74 33.37 32.95 32.09 31.58 31.63 32.08 32.94 33.18 33.56 33.99 33.57 33.61 34.05 36.16 34.22 35.51 38.09 41.84 41.96 45.71 44.03 46.02 51.01 57.08 58.22 58.41
28.81 28.69 30.13 30.40 30.49 30.10 30.46 30.20 28.35 26.93 26.30 27.39 27.90 28.27 28.46 29.63 31.80 32.04 32.13 31.29 30.72 30.32 29.75 30.65 31.90 31.81 31.68 32.00 32.74 33.05 33.29 31.05 30.91 32.24 34.74 34.78 35.20 37.85 37.61 37.38 41.07 46.88 54.27
27.87 27.58 27.81 28.31 28.25 28.26 28.58 28.36 27.44 25.18 25.00 23.91 24.51 26.03 26.79 28.34 29.86 30.24 30.17 29.92 29.46 28.84 29.11 29.18 29.61 30.45 30.85 29.54 31.04 31.53 31.56 30.99 29.07 30.68 30.82 32.06 32.41 33.50 33.71 33.74 35.45 38.00 41.41
28.13 27.00 26.39 25.56 25.77 26.35 25.70 25.36 25.97 25.81 22.78 22.03 21.98 22.51 24.04 26.83 29.77 28.44 28.33 27.32 27.50 28.72 28.21 28.56 28.40 28.52 29.21 29.33 28.21 28.33 28.69 28.78 29.18 29.64 29.22 30.22 31.27 32.09 32.61 32.67 32.99 36.02 39.37
27.96 26.78 26.10 25.27 23.84 24.07 23.55 22.63 23.14 22.76 22.84 21.64 21.36 21.87 21.47 23.76 28.24 28.38 26.10 24.96 25.15 25.61 27.39 26.85 28.04 27.57 29.26 30.10 26.80 26.06 26.24 26.25 29.25 30.13 30.23 30.61 30.84 30.99 31.75 30.93 29.36 29.33 32.22
26.32 27.95 26.68 25.45 23.69 22.36 22.83 22.11 22.03 21.49 20.42 20.34 19.96 20.02 22.96 21.20 27.03 27.86 26.25 23.51 21.63 22.71 25.61 25.13 27.36 27.83 27.72 28.03 25.15 24.60 23.42 23.80 25.23 25.85 25.54 26.21 28.23 29.21 29.86 29.41 29.04 26.14 27.40
27.39 27.46 27.36 25.57 23.43 23.16 22.63 22.41 21.08 19.88 19.35 16.87 16.15 16.88 18.01 21.65 22.05 26.63 27.26 22.54 20.47 21.36 22.57 20.80 21.60 26.25 26.07 25.87 26.00 23.55 23.73 24.43 24.73 24.96 24.86 25.28 25.63 25.82 27.52 28.33 28.64 27.86 25.84
26.21 25.88 25.75 25.76 25.89 23.49 19.03 20.85 20.43 19.27 17.68 16.72 16.32 16.74 18.69 16.90 24.03 24.15 25.43 24.79 23.15 20.00 18.08 18.46 19.11 23.64 23.82 23.21 22.29 24.11 24.42 22.61 23.43 23.31 22.61 21.31 21.70 23.12 24.23 26.72 27.83 27.12 28.16
25.18 24.47 24.45 24.79 24.76 24.49 21.80 19.83 19.12 19.01 17.61 17.17 16.82 15.76 16.63 19.48 19.74 23.04 23.15 23.62 21.87 17.42 18.20 19.22 19.95 20.35 20.06 18.97 21.03 21.52 19.70 19.63 19.81 20.39 20.23 21.02 20.69 21.92 22.58 24.65 26.96 26.58 26.44
23.70 24.12 23.43 23.01 22.76 23.05 22.78 21.27 18.79 16.93 16.58 17.09 16.09 13.55 12.36 15.84 19.24 19.21 17.95 17.60 19.44 17.17 14.71 13.45 11.73 16.49 10.83 11.77 14.06 15.79 16.26 16.39 16.83 15.92 19.74 20.99 21.24 20.72 20.68 21.72 22.85 23.21 21.24
22.65 23.37 22.73 22.56 21.81 21.56 22.01 19.51 21.92 20.44 19.32 17.02 12.40 9.65 11.90 13.61 19.26 21.63 19.14 16.62 15.91 15.58 11.50 11.74 10.99 9.69 9.33 10.02 10.50 11.57 12.85 14.37 13.58 14.97 14.85 17.14 18.96 20.56 20.61 21.51 21.30 20.98 19.26
20.65 20.82 20.99 21.37 20.53 20.77 19.91 19.71 24.43 23.19 25.36 24.92 23.50 19.58 12.09 21.61 22.48 22.35 20.41 19.34 18.95 16.69 9.77 7.88 8.17 7.77 7.19 7.84 8.08 8.38 9.78 11.36 12.17 13.11 13.19 13.43 14.26 17.62 19.71 20.31 20.67 19.34 18.46
19.82 20.31 19.45 19.95 20.20 19.43 18.10 17.25 12.76 16.57 22.94 23.59 22.62 21.70 21.82 21.51 21.51 21.20 19.39 17.51 17.37 14.29 7.56 6.09 5.71 6.28 6.21 6.80 7.44 7.84 7.07 9.33 10.08 9.68 11.05 11.28 12.40 13.48 18.02 18.64 19.03 19.07 18.18
17.13 15.09 11.92 9.12 7.26 11.28 8.75 10.02 7.41 5.78 4.51 7.51 16.47 19.42 20.28 20.54 20.30 19.75 18.48 14.64 9.05 10.04 8.39 3.20 4.55 6.95 6.68 6.04 6.24 6.75 5.84 6.54 5.59 5.56 7.52 8.31 9.25 9.51 13.51 16.98 17.62 16.90 18.39
18.60 13.13 9.42 8.26 8.25 9.17 9.04 8.34 8.26 8.15 5.39 3.62 7.07 11.16 9.38 18.28 18.65 17.97 16.36 1.81 -0.76 2.49 7.29 7.34 3.68 6.62 5.16 5.37 2.51 3.43 1.83 2.50 1.51 0.68 3.70 5.26 5.91 7.36 10.61 14.96 15.85 15.81 16.28
14.76 12.35 11.76 11.08 9.09 8.84 7.57 7.26 8.02 6.71 4.68 1.84 2.51 2.34 5.50 6.48 -0.79 -4.92 -4.37 -7.45 -6.00 0.44 2.34 6.56 6.96 6.78 0.43 1.41 -2.79 -8.72 0.14 -0.72 -0.41 -0.04 -0.50 1.87 3.79 6.28 8.30 11.76 14.95 14.48 15.47
5.39 8.62 8.98 10.31 8.00 6.96 5.66 5.72 5.75 3.58 2.57 1.82 0.74 -2.08 2.84 3.25 0.15 -0.95 0.65 1.61 0.71 0.96 -1.65 2.87 0.57 -2.38 -1.83 -2.78 1.80 -4.20 -4.28 -8.94 -2.99 -1.90 -1.91 0.39 1.19 2.54 6.76 11.33 13.97 14.87 15.44
6.78 7.73 9.61 7.90 8.39 6.10 5.24 6.83 3.76 1.80 2.33 2.69 2.31 5.86 4.01 -0.80 0.98 2.41 2.57 -0.93 -1.30 -0.27 0.58 -0.57 -0.23 2.74 3.65 2.91 -2.40 -13.25 -8.96 -10.36 -9.13 -3.75 -4.13 -1.63 0.63 2.27 5.63 9.93 11.19 12.26 13.55
6.36 6.10 7.86 9.25 7.56 5.79 3.01 3.93 2.35 0.06 1.98 1.43 4.07 5.50 3.41 -1.34 -3.48 0.78 0.10 -3.64 -0.20 -2.02 -0.82 -1.39 -6.91 1.40 2.57 -2.39 -8.18 -4.77 -6.91 -4.68 -4.63 -6.38 -7.63 -2.62 0.15 2.47 4.49 7.48 8.85 9.82 10.48
7.61 4.80 8.39 7.40 3.26 5.36 -0.67 -2.05 0.13 3.55 5.32 3.20 -0.83 1.07 1.07 1.75 -1.93 -0.85 0.03 -2.09 -4.73 -6.18 -8.18 -8.57 -4.04 1.68 2.74 -4.19 -6.55 -2.23 -0.80 -6.42 -7.10 -6.32 -7.82 -3.03 0.06 3.82 4.48 5.85 7.39 8.46 8.50
3.99 1.08 2.95 4.35 3.16 1.67 -2.92 0.47 -1.29 -2.38 -1.34 -0.66 0.82 -2.75 3.33 2.97 2.83 1.93 -0.53 -1.41 -2.45 -8.00 -2.80 -5.51 -4.91 -2.84 -4.04 -3.10 -2.00 -0.79 -7.27 -7.45 -10.18 -9.88 -3.54 -2.97 -3.29 -3.00 0.44 4.11 4.71 6.88 5.80
7.17 6.95 4.54 2.83 4.39 2.79 0.85 1.19 2.97 -1.65 -0.22 2.08 1.71 1.65 3.41 8.62 8.88 6.47 4.08 0.53 -3.46 -0.77 -2.24 -1.84 -3.12 -2.94 -1.79 -1.87 0.23 -0.08 -6.73 -8.90 -10.90 -9.26 -5.52 -3.84 -6.22 -6.20 -4.32 -1.39 3.18 3.41 5.34

GFSGL_sfc_wetblb_141.txt.gz
Wetbulb
32.18 32.87 32.95 33.26 33.08 32.84 32.74 32.35 32.84 34.42 36.69 39.32 39.30 39.51 39.77 39.92 40.32 39.63 40.06 40.03 39.43 38.73 39.20 38.98 39.66 40.98 40.87 42.48 44.23 46.02 48.05 50.24 53.39 58.13 58.98 59.00 57.68 57.87 58.99 58.94 59.48 60.26 60.23
31.68 32.04 31.91 32.16 31.70 30.88 30.24 31.16 31.70 32.13 35.06 36.26 38.82 37.86 37.14 37.02 36.71 36.22 35.47 35.95 35.43 35.24 35.44 35.38 35.17 37.58 36.57 38.76 39.98 40.66 42.47 45.95 48.09 49.41 53.19 56.65 57.13 57.89 58.29 58.99 60.01 60.39 60.23
30.92 31.18 30.79 31.03 30.94 29.56 29.20 29.06 30.48 31.16 31.28 32.11 33.51 34.72 34.47 34.11 33.92 34.34 34.08 33.79 33.49 33.20 32.80 32.90 32.54 34.12 33.88 34.74 35.95 38.28 37.27 40.48 42.19 44.45 47.08 51.00 54.15 55.85 53.97 58.43 59.03 58.87 59.54
29.66 29.58 29.27 29.44 30.22 29.78 28.68 28.14 27.56 29.16 29.61 29.67 30.41 31.65 32.72 32.75 32.78 32.39 32.29 32.16 32.31 32.48 32.66 32.14 32.14 32.27 32.49 33.04 33.21 32.91 33.68 35.04 36.07 37.57 41.24 41.27 43.12 41.97 44.05 41.20 40.39 46.30 49.85
27.62 27.73 27.94 29.16 29.34 29.03 27.56 26.36 26.44 26.04 26.87 28.41 28.83 29.04 30.18 31.03 31.68 31.05 30.86 30.53 30.34 30.84 31.35 31.45 31.91 32.56 33.03 32.76 31.88 30.66 30.59 30.56 31.69 33.94 33.73 35.29 35.87 34.98 33.79 35.62 36.08 38.95 43.43
25.98 24.97 26.27 26.43 26.91 26.80 26.63 25.50 24.29 24.04 23.97 25.21 26.65 27.35 27.19 28.76 31.41 31.58 30.21 28.80 29.15 28.53 28.40 29.35 30.11 30.61 30.22 30.95 31.53 31.52 30.58 28.35 28.16 29.02 29.99 29.57 30.38 31.01 31.70 32.53 33.32 34.06 35.79
25.24 24.80 24.90 25.30 24.49 23.93 24.43 24.00 22.86 21.91 22.69 22.74 23.41 25.39 26.53 26.37 29.11 29.62 29.49 27.99 26.78 27.41 27.21 27.42 27.61 28.83 28.89 28.10 29.08 29.54 29.11 29.50 28.37 28.43 26.08 26.58 27.53 29.12 30.19 30.02 30.60 31.30 32.75
25.19 24.15 23.87 23.80 23.38 22.91 22.20 21.38 21.25 21.21 20.70 21.33 22.29 23.21 25.20 26.89 27.40 27.27 27.04 26.11 26.10 24.85 25.93 26.60 25.66 25.67 27.55 26.48 26.63 26.56 26.58 26.59 27.58 28.00 27.53 27.73 28.37 28.99 29.33 29.67 29.68 30.35 31.09
25.09 23.98 23.79 23.50 22.43 22.05 21.03 20.55 20.16 20.24 20.20 20.54 21.14 21.97 21.53 24.95 27.80 25.78 24.30 23.19 24.28 22.27 22.48 24.69 24.79 24.20 26.82 27.29 24.30 24.33 24.14 24.53 27.67 28.81 28.63 28.74 28.78 28.98 29.36 28.10 26.63 26.01 25.63
26.34 24.76 24.01 23.81 22.72 21.36 21.34 20.43 20.69 20.07 19.83 20.26 20.02 20.42 23.22 20.52 26.73 26.01 22.97 21.18 19.44 18.86 18.81 19.84 24.36 23.76 25.04 25.13 21.75 21.89 20.08 21.14 23.41 24.32 23.49 22.85 23.49 23.83 26.09 26.15 26.18 23.72 24.20
26.79 26.54 26.40 24.52 22.41 21.70 21.29 21.47 20.23 18.86 18.29 16.38 17.25 18.87 18.90 21.29 20.88 25.48 24.06 19.38 17.45 15.91 15.52 15.10 18.00 22.63 22.70 23.63 22.49 20.62 19.90 20.64 19.80 22.24 22.28 18.09 20.40 21.00 21.58 22.10 25.82 25.23 23.86
25.28 25.11 24.95 24.84 24.04 22.74 18.84 20.17 19.80 18.45 16.97 15.99 16.00 16.89 18.93 18.45 22.48 22.64 23.26 21.56 19.25 14.86 13.12 14.11 15.34 19.97 19.65 20.08 18.69 20.22 19.58 16.96 15.25 14.57 18.42 19.39 19.22 19.04 20.38 20.54 20.19 22.01 21.30
24.08 23.27 23.52 24.05 24.27 23.69 21.08 18.52 18.00 18.01 16.92 16.43 16.40 15.10 16.20 18.55 17.89 20.69 21.32 20.00 19.01 12.66 14.72 15.96 16.97 16.45 15.76 14.25 16.87 16.71 13.96 12.46 11.98 11.28 11.30 13.78 16.44 18.91 19.19 19.33 21.17 19.92 20.52
23.36 22.69 22.44 22.14 21.80 22.50 22.29 21.13 16.92 14.77 16.36 16.83 14.92 12.64 10.82 15.63 18.56 16.30 15.82 14.21 16.35 13.24 10.26 7.86 7.66 13.41 6.16 5.67 8.71 9.83 9.33 10.38 9.28 9.55 10.27 11.79 13.18 14.84 16.91 19.39 20.07 19.52 18.43
22.75 22.66 21.89 21.95 20.94 20.15 20.96 20.04 22.02 16.73 20.40 16.26 8.75 6.77 8.28 9.01 18.00 19.54 17.54 15.46 11.67 11.79 6.06 5.64 6.83 5.71 4.88 5.14 5.53 6.06 6.57 7.33 6.22 7.15 8.00 9.43 10.03 11.23 12.09 16.84 18.67 18.98 17.71
21.28 21.06 20.72 20.81 19.91 19.41 18.28 17.70 22.80 22.13 23.68 22.98 22.24 17.70 11.33 21.01 21.81 21.08 19.45 18.50 17.80 14.99 2.59 2.35 2.03 0.80 1.60 2.71 2.89 3.92 4.37 4.46 4.69 5.07 5.04 7.74 8.11 9.00 9.65 12.93 17.34 16.92 16.02
19.83 20.33 19.57 19.95 19.02 16.40 15.48 15.19 9.36 14.25 21.19 21.16 21.04 20.45 20.79 20.59 20.60 20.22 18.80 17.07 16.55 13.31 4.97 0.44 -4.08 -2.16 1.09 4.48 4.02 3.74 1.91 3.18 4.10 2.79 2.33 4.57 6.48 7.16 7.84 10.16 14.26 14.85 14.37
16.74 14.60 12.55 9.29 8.13 7.20 3.92 5.55 4.83 3.23 0.55 3.60 13.89 18.09 19.24 19.57 19.07 18.79 17.57 13.82 6.05 8.11 5.70 0.72 -1.18 3.52 5.15 4.98 4.57 3.70 2.46 2.07 1.20 0.83 0.05 0.79 2.55 4.10 5.34 7.34 10.40 12.28 12.94
19.13 14.49 10.53 9.83 8.86 8.57 7.23 6.19 5.81 4.40 2.31 1.21 4.71 9.29 7.50 16.94 17.58 16.95 15.69 -0.53 -2.64 0.69 5.94 6.54 2.00 4.34 3.97 4.50 -1.50 -4.11 -6.10 -3.18 -2.68 -5.64 -2.57 -2.16 -0.48 2.31 2.62 5.17 8.21 10.50 11.79
16.00 13.92 12.94 12.75 10.44 8.65 5.63 5.29 5.61 3.34 2.27 -0.02 0.33 0.67 3.67 5.55 -1.05 -7.16 -7.52 -8.25 -7.52 0.02 1.09 5.70 6.31 5.93 1.65 1.45 -4.81 -12.24 -7.17 -7.03 -2.45 -2.40 -3.89 -4.35 -1.93 0.09 0.88 3.45 5.84 9.08 10.91
11.25 11.34 9.95 11.66 7.78 6.00 3.31 4.07 3.86 1.57 1.06 0.35 -0.91 -4.26 0.33 0.99 0.22 -2.09 1.49 -1.91 -0.09 2.44 -0.65 1.47 1.17 -2.09 -0.66 0.40 1.54 -4.99 -7.16 -12.78 -6.26 -4.70 -4.08 -3.85 -3.30 -1.77 1.72 3.57 6.19 8.67 10.04
10.16 10.55 10.96 7.88 7.09 4.19 3.78 5.16 2.32 0.86 1.56 1.24 3.10 4.86 2.65 -2.46 0.89 2.77 3.30 1.60 0.15 0.77 1.46 -1.55 -0.46 0.48 1.40 2.55 1.49 -7.16 -5.37 -10.97 -10.10 -7.60 -6.39 -6.01 -2.91 -0.47 1.14 2.06 4.79 6.33 7.87
8.34 9.13 9.61 8.50 6.29 4.01 1.04 2.62 1.08 -1.25 1.75 1.74 3.67 4.56 4.53 2.61 2.06 3.79 2.70 0.95 0.49 1.37 1.58 -2.10 -8.61 -0.87 1.52 -3.20 -2.45 0.32 -5.35 -2.74 -3.28 -9.16 -10.61 -8.10 -3.92 -1.28 0.15 2.09 3.64 4.45 6.33
8.54 4.91 7.06 5.59 1.31 4.27 -1.78 -1.60 -0.30 1.53 2.95 0.40 -3.55 1.12 0.58 1.20 0.66 2.87 5.51 2.55 0.28 -1.84 -4.99 -7.16 -4.02 -0.50 0.40 -4.45 -4.81 -4.62 -1.52 -0.98 -5.54 -7.04 -12.24 -6.66 -3.71 -0.87 -1.67 -0.42 2.03 3.60 3.73
2.06 -0.08 -0.66 3.95 2.62 0.09 -3.36 0.81 0.77 3.31 0.19 -2.30 -0.35 -1.01 2.45 0.71 3.34 3.14 2.45 4.77 6.02 1.53 -1.05 -2.84 -3.26 -2.22 -2.56 -3.29 -1.38 -1.26 -4.51 -3.90 -11.33 -11.51 -11.51 -3.61 -3.07 -7.34 -6.55 -3.34 -0.96 2.55 1.55
8.56 9.43 7.75 4.81 0.22 -2.28 -0.82 -2.81 -0.82 1.10 0.36 2.31 -0.31 -4.62 -2.81 2.46 4.13 4.01 5.40 5.55 6.39 5.93 4.78 0.63 0.73 -0.08 -1.62 -1.94 0.05 -0.35 -3.17 -6.62 -11.69 -11.33 -16.77 -9.52 -9.88 -7.72 -7.38 -5.57 -4.01 0.14 1.85